GFSSGP_500_rhum_021.txt.gz
RH
14 19 18 14 12 9 14 82 85 78 12 7 28 64 72 85 93 98 90 84 86 70 61 63 77 93 82 57 50 34 28 16 5 5 6 8 8 9 9 9 10 10 10 10 11 12 9 7 7
19 23 21 16 14 52 72 84 88 29 79 18 36 64 75 72 72 80 94 99 96 98 80 90 97 96 71 59 50 34 26 9 6 5 6 8 8 7 7 8 8 9 9 10 12 9 8 6 6
30 25 16 15 22 77 82 98 35 25 48 22 42 79 72 70 71 71 74 92 92 95 96 97 97 96 80 78 58 37 22 6 6 5 7 8 7 7 6 7 8 8 9 11 10 8 9 16 10
40 40 22 30 87 84 85 65 34 18 39 43 57 76 80 92 81 68 69 94 97 96 96 96 94 96 87 79 52 36 7 4 6 6 7 8 7 6 6 6 8 9 11 11 12 14 25 28 21
42 38 44 56 87 96 58 58 95 92 61 58 75 92 95 88 94 85 82 90 97 96 96 97 93 93 94 95 73 24 4 6 6 6 6 7 6 6 7 8 8 10 12 13 19 42 42 36 31
50 45 71 83 86 94 87 38 81 60 53 76 87 82 85 90 90 94 94 98 96 96 96 94 94 96 92 96 77 5 6 6 5 5 6 5 5 7 8 8 10 14 15 29 38 51 45 44 35
51 75 78 86 99 84 77 76 97 78 69 87 87 87 79 80 79 68 87 92 97 96 96 96 96 91 95 59 6 6 6 6 6 5 5 6 7 7 8 12 16 18 26 44 50 50 45 39 27
61 77 83 84 80 97 56 90 50 31 81 97 76 94 91 82 72 80 96 96 96 97 96 92 92 83 40 14 5 6 7 6 6 5 6 6 7 11 12 15 17 26 31 59 64 53 44 43 29
77 67 81 90 65 97 59 54 53 55 80 85 90 84 92 87 84 99 97 94 94 96 88 95 51 20 9 9 8 7 6 5 6 8 12 17 14 13 15 23 30 38 38 44 43 41 40 37 31
77 66 82 89 91 67 74 66 77 74 90 84 91 96 83 52 62 78 78 88 86 74 69 30 36 10 8 8 8 10 14 14 16 18 19 17 20 35 44 47 46 47 50 51 42 38 42 41 34
73 75 100 65 87 93 79 79 76 76 84 91 96 64 23 19 35 46 71 77 32 19 15 7 8 15 11 13 16 18 16 21 23 28 30 38 44 43 44 60 64 86 86 58 43 41 40 40 41
68 83 64 55 97 74 75 89 92 84 97 84 79 64 63 14 15 20 12 12 10 6 6 7 9 16 16 18 21 20 20 25 24 26 38 67 80 91 90 94 96 91 80 75 61 54 58 52 50
84 77 45 84 92 90 88 88 89 96 46 52 28 17 9 10 13 12 10 8 7 9 13 18 18 19 20 23 29 43 50 54 66 82 93 96 99 98 98 98 99 86 82 70 65 71 72 63 58
89 65 92 95 94 98 72 75 98 82 25 15 16 16 17 16 20 17 12 13 17 21 22 20 20 22 30 57 69 87 97 97 96 95 95 99 97 99 97 94 93 79 72 68 72 79 68 58 59
100 98 97 96 97 56 92 47 62 37 23 16 17 18 19 19 22 24 23 25 24 23 22 22 25 30 45 65 78 99 98 96 97 96 98 92 94 81 67 57 41 66 72 60 70 65 70 72 70
99 96 100 93 96 88 63 95 38 22 21 19 19 20 20 19 22 24 26 29 30 35 40 45 51 59 65 63 78 90 98 96 94 94 64 54 57 62 55 51 56 61 70 73 70 60 52 49 46
96 91 97 62 92 62 90 99 14 19 30 33 28 26 24 24 23 24 29 41 52 62 63 71 76 76 68 67 81 97 71 42 53 66 67 66 59 55 51 53 53 51 43 36 37 36 35 33 34
95 91 70 78 51 67 52 74 26 46 71 68 50 37 29 27 28 32 44 60 70 67 64 59 54 58 64 82 78 58 48 52 66 70 62 59 44 48 48 50 48 44 38 36 39 41 48 49 45
97 92 71 77 50 74 75 36 25 58 82 75 68 54 41 30 27 28 36 42 50 52 50 43 44 52 78 89 63 57 37 35 43 34 29 39 46 60 61 53 48 52 62 64 67 67 72 69 60
91 87 94 44 24 35 40 90 43 83 87 76 55 50 41 41 38 40 47 44 39 43 35 36 53 64 65 65 38 28 19 19 19 23 24 26 31 38 48 76 81 69 74 79 73 68 66 61 55
99 92 100 91 35 36 97 100 36 36 41 44 43 52 52 40 41 47 41 40 60 64 60 57 66 66 52 28 19 18 18 19 20 22 22 25 32 37 45 49 58 74 76 71 63 60 61 48 39
99 62 98 83 82 82 49 88 97 37 23 29 36 34 33 35 34 36 41 47 59 48 35 25 22 22 21 19 19 19 18 19 19 18 21 23 26 35 38 36 47 57 61 63 66 59 44 43 41
96 70 64 70 45 99 83 66 89 87 40 27 30 30 34 34 33 30 42 44 34 22 18 18 17 18 18 18 18 19 21 23 23 22 23 25 27 30 30 33 50 69 72 67 57 52 54 47 43
43 59 53 55 79 86 77 99 92 97 64 32 26 25 28 26 24 37 37 28 18 16 17 18 18 19 19 20 22 28 29 29 30 30 38 41 36 33 35 40 57 61 64 61 55 54 49 47 45
59 86 95 91 100 86 94 67 76 95 79 44 20 21 18 19 31 26 19 16 17 19 22 24 23 24 25 26 29 31 33 33 37 99 88 100 57 41 45 56 64 67 68 62 58 58 59 46 31
50 100 100 86 93 61 76 39 63 51 23 17 15 17 19 19 16 16 18 19 21 26 27 27 26 27 30 32 34 36 38 39 47 92 90 45 42 38 40 58 69 70 69 67 65 57 48 38 28
80 50 55 60 28 22 23 57 69 20 15 14 13 14 14 16 18 20 22 22 27 25 23 20 21 24 28 32 37 42 44 46 49 48 47 42 38 35 50 75 77 75 71 62 51 41 30 27 19
29 29 28 26 24 22 69 72 67 24 15 16 16 16 17 15 14 18 23 23 21 19 18 19 20 23 26 34 42 44 47 51 51 52 50 43 38 45 79 86 81 71 59 52 44 30 30 20 16
24 22 22 29 41 18 22 61 55 19 17 16 15 14 13 14 15 17 18 18 18 18 20 21 22 24 25 26 27 31 42 50 68 56 50 46 52 83 87 83 72 55 53 46 29 27 22 23 7
10 11 14 16 21 23 19 26 21 16 16 16 16 17 18 19 19 20 20 21 22 22 23 23 24 25 27 28 31 35 42 51 59 55 56 67 85 86 83 71 57 57 49 40 27 27 30 14 9

GFSSGP_500_rhum_024.txt.gz
RH
8 12 15 21 16 11 11 10 21 80 23 35 31 38 27 52 74 89 65 87 88 98 95 81 76 76 65 76 82 84 55 33 22 12 4 6 8 9 10 9 9 9 9 9 9 10 8 7 9
11 15 24 23 14 13 13 88 96 36 48 19 24 31 20 15 22 48 63 75 89 90 97 96 94 92 87 89 96 79 46 31 21 7 4 6 8 8 8 7 8 8 9 9 11 11 10 9 19
15 22 28 31 17 14 72 87 91 47 40 19 27 15 26 14 41 60 58 63 69 90 98 100 97 95 97 98 99 74 52 29 16 6 6 7 8 7 7 6 7 8 8 9 11 11 12 37 32
33 57 44 29 20 59 73 61 56 48 34 53 27 58 23 18 50 53 57 57 64 98 96 96 93 97 96 96 97 95 61 26 5 6 6 7 8 7 6 6 8 8 8 10 11 12 24 42 38
52 61 51 28 27 75 81 55 32 23 38 83 74 33 33 38 50 58 66 75 82 88 94 97 100 97 97 97 96 96 60 7 5 7 6 7 8 6 6 7 8 8 9 14 19 27 31 37 41
53 65 55 49 73 82 93 46 22 28 73 93 84 41 39 54 56 71 75 88 98 96 96 96 96 96 96 95 95 95 52 7 6 5 5 6 8 5 7 8 7 10 12 15 18 34 52 38 41
31 66 56 76 98 88 88 43 23 48 97 72 72 68 45 45 59 74 79 88 98 97 96 97 96 96 97 96 92 47 10 6 5 11 12 7 5 7 7 9 12 12 13 16 24 31 48 47 43
24 66 63 84 88 94 96 99 66 78 62 58 48 89 84 69 61 74 75 79 96 97 94 95 95 98 92 83 45 25 21 8 13 5 5 5 7 9 15 14 14 17 23 38 38 38 38 34 37
59 59 44 68 80 97 61 97 63 32 39 34 51 95 76 75 75 80 72 99 98 97 96 96 95 94 79 43 22 12 6 6 6 7 7 11 14 14 17 19 20 37 59 52 58 57 54 44 36
69 66 62 89 94 96 93 94 89 64 62 46 59 60 61 75 75 76 90 96 96 95 96 95 86 72 42 16 6 6 7 11 14 16 14 14 15 22 26 36 47 67 100 95 76 69 58 49 47
74 75 97 97 96 87 77 93 97 65 59 54 94 93 90 78 85 98 96 96 94 75 20 14 18 18 14 8 10 15 17 18 16 17 18 26 32 78 97 94 99 97 100 88 72 60 66 50 55
74 94 100 99 80 67 84 97 69 85 91 91 99 30 62 68 68 82 92 40 17 6 5 7 11 12 16 16 21 20 34 90 88 91 92 90 98 100 95 94 88 80 86 75 60 58 50 46 43
69 95 92 71 100 84 72 93 70 97 76 95 91 54 53 20 12 13 8 5 6 8 10 14 19 18 20 22 48 76 88 89 95 94 96 99 94 92 80 83 80 51 46 40 38 32 43 41 57
54 63 63 58 82 92 98 89 96 89 89 71 52 17 14 14 7 4 5 7 10 16 20 22 22 24 27 42 64 70 92 99 98 98 98 96 100 55 53 47 55 37 27 44 40 37 36 44 48
85 71 56 56 96 98 97 74 86 79 40 26 17 15 16 14 14 11 14 15 19 19 20 24 33 44 57 64 65 74 92 97 96 80 65 70 65 56 57 40 30 26 25 29 38 36 34 31 28
85 79 96 96 87 62 85 84 60 51 38 25 21 19 19 16 17 17 16 17 20 24 35 47 57 52 54 60 67 72 88 90 58 50 53 66 44 22 20 20 26 25 28 34 37 39 40 38 37
97 96 93 82 84 82 83 93 35 23 39 37 17 18 18 18 18 19 20 21 30 35 39 36 62 60 58 59 65 90 72 66 54 30 26 26 20 19 19 22 24 25 31 35 37 40 43 43 42
91 94 97 100 64 97 90 90 39 18 28 23 13 19 20 20 18 17 17 18 18 17 29 28 42 59 47 42 61 93 67 43 19 16 17 18 17 18 19 22 26 32 30 28 31 37 55 75 73
95 94 94 93 64 51 88 92 42 13 22 20 80 19 18 16 22 23 26 30 30 25 37 35 20 52 58 43 54 65 41 17 16 17 17 18 20 20 20 20 21 24 29 30 33 50 52 55 57
100 91 93 75 25 50 86 90 23 15 29 29 24 16 15 22 29 32 38 35 31 19 20 36 50 52 47 50 56 25 16 16 17 19 23 26 26 24 25 27 31 33 33 40 37 37 48 55 60
96 97 93 94 26 18 80 71 74 25 20 21 22 24 21 21 17 25 25 26 26 24 44 44 40 28 20 20 18 17 16 18 22 25 28 29 28 28 34 40 61 75 37 32 28 38 53 54 60
98 74 90 99 92 47 85 96 93 93 39 22 21 18 16 20 18 23 29 23 33 52 55 29 20 18 17 17 18 18 20 22 24 25 28 30 33 35 51 73 78 50 36 33 32 51 64 66 64
94 79 66 90 79 78 90 95 76 84 76 35 32 33 21 18 16 21 28 25 31 38 22 16 16 17 18 19 20 22 23 22 24 27 33 38 40 43 62 68 46 37 33 31 40 69 76 74 63
54 36 36 70 93 80 88 96 88 96 98 92 91 57 36 22 17 17 18 18 28 19 16 17 20 24 24 24 26 25 25 26 30 35 40 43 46 48 51 51 44 42 38 40 65 78 76 63 44
33 48 64 99 93 84 91 95 97 98 93 90 53 44 32 18 15 16 17 23 15 15 18 24 25 24 23 22 22 23 25 31 35 38 43 47 50 53 50 50 52 46 51 71 80 80 61 48 41
40 66 97 96 89 92 90 87 80 63 70 63 44 16 18 17 16 15 14 16 19 19 22 23 22 20 19 19 20 23 26 29 28 30 30 32 40 61 70 58 56 59 74 80 79 66 65 58 46
97 78 96 90 94 46 53 65 54 43 59 56 16 14 13 13 15 17 16 18 22 23 23 20 18 18 19 21 22 24 25 26 26 28 30 36 41 63 62 62 64 76 80 78 76 78 81 70 66
28 27 21 26 20 16 21 85 94 88 54 20 16 16 15 16 16 14 13 15 17 18 18 19 20 21 22 24 25 26 27 28 29 31 34 46 68 65 66 68 78 79 84 90 88 90 80 72 76
23 26 20 23 31 19 15 77 92 72 47 19 17 15 14 14 14 15 16 18 20 21 22 23 23 24 26 27 29 29 30 31 31 35 47 63 69 70 78 84 80 81 79 84 84 80 64 78 64
16 26 19 13 16 12 13 23 40 41 27 16 16 16 15 16 16 17 19 22 23 22 21 21 24 28 32 33 32 33 33 36 44 59 61 64 67 78 88 81 78 80 76 71 74 75 74 87 78

GFSSGP_500_rhum_027.txt.gz
RH
15 21 16 16 16 10 11 22 28 46 28 33 64 86 63 69 81 54 26 47 68 95 96 97 96 97 94 84 75 79 89 85 85 45 23 13 6 8 10 10 10 9 9 9 8 8 8 7 7
11 22 18 12 10 10 16 29 48 53 32 53 61 48 43 50 60 54 15 24 48 68 96 96 96 96 99 97 96 96 96 95 88 37 15 6 6 9 10 8 8 8 8 8 9 9 8 9 18
12 14 15 11 9 11 41 62 52 64 58 30 53 67 37 44 67 60 21 16 31 64 80 77 94 97 98 98 96 96 97 96 85 38 9 6 6 8 8 7 7 7 8 8 9 10 10 12 22
11 14 17 20 16 38 81 50 36 37 56 62 97 88 54 32 45 37 26 44 70 70 79 68 78 90 97 97 97 95 96 94 87 35 7 6 7 8 7 6 7 7 8 8 10 15 19 21 28
13 20 24 23 30 55 81 71 77 70 80 97 67 62 64 32 36 53 56 58 72 75 76 85 98 96 96 97 98 97 98 90 74 14 8 7 7 8 7 6 7 8 7 10 11 16 20 26 46
23 25 31 38 87 93 74 49 74 68 69 52 39 80 53 46 34 59 70 88 97 84 92 91 96 98 98 97 97 95 96 82 17 10 7 6 7 11 26 7 7 7 10 10 14 17 26 31 44
40 36 57 52 96 93 80 90 95 96 71 38 60 81 60 57 50 45 91 88 97 86 89 89 99 97 96 96 95 95 94 83 50 22 9 26 37 25 5 8 10 11 12 15 38 42 41 44 46
63 61 54 73 100 92 97 100 94 98 65 74 38 42 54 88 90 76 69 76 78 88 96 96 96 95 96 95 93 82 76 57 45 32 28 24 7 7 9 12 14 16 17 28 55 62 65 62 52
40 36 36 91 97 98 83 92 97 96 86 35 36 42 45 93 90 65 68 76 86 92 96 98 96 96 97 96 89 62 39 35 31 17 8 10 12 11 15 17 17 31 50 56 72 73 65 56 56
71 28 86 90 98 93 88 86 95 94 75 40 56 83 86 97 73 66 95 98 95 81 96 96 95 93 86 58 30 25 16 11 10 12 11 11 15 14 42 73 66 71 68 63 64 68 58 47 47
79 62 96 84 69 98 82 64 60 90 49 80 81 92 96 91 73 87 98 97 98 96 96 96 89 23 18 9 8 10 15 63 83 77 72 75 66 64 74 56 70 66 56 49 44 34 49 36 40
69 96 97 92 83 69 67 73 98 73 83 68 84 94 96 98 89 80 96 95 95 87 82 76 39 16 12 13 16 28 69 77 83 79 75 78 71 72 70 40 52 69 63 67 54 26 17 14 16
79 92 98 99 71 78 66 75 74 86 79 80 100 96 94 90 83 84 48 57 41 28 31 22 15 16 17 20 40 53 68 86 92 88 72 49 64 64 59 38 41 35 29 18 16 14 18 24 24
92 95 95 99 56 97 72 61 92 96 93 87 98 85 65 58 42 11 26 9 6 10 14 15 18 22 28 37 45 47 62 86 92 88 45 40 46 48 40 21 18 17 19 20 21 20 23 28 29
100 84 79 94 79 62 88 82 71 91 94 52 43 29 65 19 22 12 6 8 10 19 19 24 34 37 45 45 49 62 73 100 72 60 46 22 27 20 18 19 19 19 20 21 22 22 22 22 24
67 66 63 95 81 92 90 66 59 57 41 24 17 14 15 14 14 9 13 19 18 20 28 31 36 34 46 63 55 58 70 76 71 53 20 17 18 18 19 20 21 21 22 23 24 25 26 26 23
74 93 88 79 88 83 71 85 39 29 41 42 28 20 18 16 16 17 17 18 22 24 39 42 20 34 54 60 66 67 60 70 62 23 18 17 19 22 24 24 25 26 27 30 38 45 33 26 26
87 98 81 96 96 90 74 87 38 17 13 15 23 14 19 15 17 15 14 13 18 23 55 66 34 45 56 69 79 68 62 60 24 19 18 21 24 27 28 27 27 32 37 43 48 50 40 31 28
90 96 98 91 100 60 47 32 41 16 20 19 41 57 11 14 15 17 15 10 13 21 37 22 48 66 46 56 52 41 36 18 18 17 21 22 25 25 27 30 34 40 45 51 49 41 35 35 31
80 90 100 81 76 44 91 76 31 61 33 28 26 14 12 13 16 10 10 8 10 21 34 57 71 59 26 19 27 18 17 18 18 21 22 24 26 28 30 34 36 37 38 40 45 41 44 39 37
94 94 98 95 68 43 89 85 87 71 34 22 19 16 14 13 15 14 13 9 10 12 24 61 70 41 17 17 18 17 18 20 21 22 23 24 26 28 32 38 42 42 45 48 48 47 49 44 50
80 100 82 62 45 30 42 75 72 94 89 88 37 21 17 13 14 16 18 16 13 16 34 75 50 20 17 19 20 20 19 20 21 24 22 25 28 31 34 36 36 40 41 44 42 51 53 56 62
96 94 82 87 97 94 86 85 72 94 95 96 72 51 18 11 12 16 17 22 20 20 35 21 22 17 21 23 20 18 17 16 18 19 21 22 24 24 24 27 28 31 37 50 48 57 59 66 61
77 74 51 79 57 81 54 80 97 83 96 74 94 81 56 31 25 18 18 18 18 23 29 17 18 23 24 21 19 18 18 19 20 21 22 23 24 25 27 28 30 36 45 60 59 63 67 61 59
85 39 42 37 74 74 70 67 97 92 93 61 52 35 40 24 20 16 18 18 18 17 18 19 20 24 23 20 17 19 20 21 22 23 25 26 28 29 29 31 40 87 68 62 65 74 68 62 68
63 37 54 69 75 69 76 93 87 74 60 52 42 47 19 15 16 18 15 17 21 22 19 18 20 20 20 20 21 22 22 24 25 27 30 31 33 33 36 48 95 86 66 68 72 73 74 76 76
80 68 66 92 83 86 69 62 82 60 39 74 67 19 15 16 17 18 18 14 14 15 16 16 17 19 22 23 24 24 25 28 31 33 34 36 40 51 60 65 65 66 67 72 78 80 80 80 82
40 95 76 48 25 15 18 59 52 88 88 92 49 17 17 16 15 15 14 14 16 18 19 20 20 22 22 23 25 31 37 37 37 46 72 53 55 71 70 68 66 64 70 71 89 92 87 89 82
36 30 30 28 26 17 18 57 97 97 87 75 50 22 17 16 16 15 15 16 18 21 22 21 21 23 30 40 42 42 39 44 54 62 69 55 67 89 74 60 67 72 62 55 70 79 77 76 78
27 25 57 32 27 16 10 12 22 74 76 70 55 20 15 14 14 14 14 16 19 21 24 29 31 31 33 42 41 41 60 63 64 64 55 61 69 66 56 70 63 65 65 81 84 78 85 92 100

GFSSGP_500_rhum_030.txt.gz
RH
12 17 15 10 16 11 12 24 26 30 32 39 32 64 99 94 83 60 66 62 58 44 43 60 73 96 96 97 97 94 95 95 97 98 93 87 27 7 9 10 11 10 10 9 8 8 8 7 5
8 15 16 11 11 16 28 40 35 32 27 30 23 35 72 67 100 81 84 52 57 73 46 56 72 91 92 82 96 94 93 94 97 97 96 84 16 8 11 11 10 8 8 8 8 8 9 11 6
7 9 14 10 9 13 45 67 40 39 35 41 43 53 68 74 97 92 54 55 68 65 54 48 40 88 83 78 92 93 89 90 100 98 95 81 38 25 14 10 8 7 7 7 8 8 13 15 18
8 8 14 15 12 38 88 77 28 28 19 56 78 67 60 52 55 54 57 49 51 50 46 59 82 74 73 65 89 97 96 92 98 98 89 86 39 20 16 11 19 6 6 8 8 11 11 15 18
9 10 12 15 42 75 49 68 40 66 61 90 95 89 71 52 52 59 56 54 51 64 73 65 79 96 90 73 96 98 96 98 97 94 82 52 40 13 26 22 7 6 7 8 10 9 13 17 20
14 12 21 45 65 60 62 67 54 73 98 86 74 60 47 54 80 62 44 56 84 84 90 81 93 97 97 98 97 98 99 97 95 92 36 28 27 29 9 9 14 7 8 8 10 13 15 22 34
35 31 56 67 95 78 91 76 94 93 97 74 45 35 42 60 72 62 62 63 89 98 95 97 95 99 97 97 97 98 97 94 49 22 14 11 9 15 23 19 13 8 9 11 12 21 33 46 54
48 52 61 84 82 81 85 94 88 83 65 77 70 66 58 68 70 61 83 93 96 95 96 96 97 97 98 96 96 96 92 76 56 35 29 38 46 38 24 16 8 10 13 16 29 37 52 65 45
78 94 92 89 89 80 80 98 98 97 91 86 94 78 70 56 73 94 94 93 81 95 97 93 97 96 96 96 96 95 95 94 93 88 65 42 21 9 10 12 17 46 41 47 57 55 48 43 41
88 63 79 83 94 78 74 84 81 74 81 97 80 66 55 83 79 89 87 93 82 92 89 97 92 97 96 96 93 80 36 17 16 16 15 14 16 21 32 57 49 45 44 45 48 55 54 42 34
72 47 74 91 91 70 75 72 57 53 77 72 65 61 85 80 95 93 71 94 95 96 97 96 96 94 88 79 53 22 19 57 92 84 82 72 76 91 79 58 46 37 47 41 44 33 34 41 33
82 79 78 86 78 59 75 64 56 73 84 62 59 67 60 97 97 92 99 96 93 95 97 96 93 62 22 20 20 27 45 70 72 71 64 52 48 53 58 59 60 34 20 21 15 16 14 13 13
79 84 83 62 67 62 86 78 97 89 60 62 67 74 96 97 94 67 46 46 57 59 92 96 91 68 53 28 37 45 61 77 87 87 76 46 30 29 53 52 20 14 16 15 16 16 15 15 16
85 87 85 91 61 92 90 86 99 78 75 62 81 98 96 91 49 26 9 9 11 14 21 25 24 22 25 33 45 54 54 65 89 90 63 43 19 16 20 17 17 20 21 20 20 20 21 22 22
96 99 96 57 88 63 54 98 86 70 86 73 69 73 95 23 15 6 6 8 12 16 16 19 31 36 38 50 49 53 57 78 89 59 46 18 17 17 18 22 21 24 23 23 23 23 24 25 27
89 73 91 86 87 95 80 73 66 49 34 44 46 44 26 22 23 21 18 17 18 17 24 29 24 27 50 68 54 67 74 68 75 59 30 18 18 20 21 22 23 26 27 27 28 27 26 28 32
51 60 76 88 98 95 88 85 52 33 55 43 23 19 19 17 20 23 21 20 22 25 34 48 49 32 32 49 59 70 71 62 48 35 18 17 19 21 22 24 26 28 29 32 34 34 37 37 40
67 84 85 100 98 100 93 61 52 40 18 25 32 19 19 15 16 15 19 19 25 22 26 35 22 49 59 40 50 46 56 55 34 20 18 19 22 21 23 25 29 30 33 36 41 46 47 45 48
98 86 86 94 93 93 100 60 52 24 17 27 50 47 24 17 11 15 14 20 19 22 21 26 60 86 68 38 23 26 20 19 20 20 20 20 19 22 26 28 29 31 32 34 32 33 36 39 43
91 95 92 81 66 65 100 92 57 33 19 31 31 19 19 22 11 12 13 14 19 24 21 45 70 78 48 19 27 19 19 20 21 21 20 21 23 24 25 26 26 26 27 27 28 29 30 32 42
88 71 74 99 86 75 99 87 43 18 30 55 48 18 18 18 14 11 12 13 14 19 26 32 84 75 29 18 20 21 21 23 23 25 24 23 22 23 24 26 27 28 28 28 30 33 36 46 56
78 72 61 90 100 50 39 60 50 35 41 48 74 63 12 18 22 15 12 11 12 20 45 67 62 53 18 50 26 24 24 25 25 23 22 24 24 24 25 27 29 28 28 29 32 42 53 64 60
79 92 92 99 92 20 37 68 76 97 68 76 87 71 40 25 15 15 15 16 18 20 22 59 37 27 20 32 34 25 27 26 22 22 22 23 24 24 25 28 28 28 30 34 43 55 74 63 63
70 96 78 73 88 80 83 50 68 93 88 73 91 72 32 23 27 17 15 18 20 31 20 47 36 25 22 26 27 25 23 20 21 22 22 22 23 27 30 31 39 45 48 60 59 59 63 61 59
70 71 65 76 85 92 76 56 61 90 89 62 43 67 26 17 13 16 16 16 19 25 51 55 29 24 25 22 24 20 22 21 20 19 21 26 33 34 46 66 71 61 56 60 63 60 60 61 57
71 70 47 46 36 47 48 62 85 79 72 58 52 63 21 15 15 17 17 20 28 59 44 47 25 18 18 20 25 27 19 20 23 28 31 35 37 55 61 63 67 56 64 66 77 59 64 56 63
77 80 59 61 66 60 78 78 67 70 55 42 64 24 18 18 17 17 18 22 26 51 36 28 27 23 22 22 32 30 25 26 30 32 37 38 57 65 67 67 75 67 69 62 62 67 68 65 67
52 72 87 73 74 59 42 45 36 37 34 58 77 52 22 18 16 16 16 16 18 21 24 25 21 21 22 30 38 36 43 40 40 46 45 59 64 63 64 64 70 62 62 65 64 64 67 74 85
43 36 81 95 60 23 19 27 18 28 48 65 62 55 38 18 17 16 18 19 20 18 17 19 20 23 31 47 62 67 68 70 81 77 59 64 64 66 77 75 64 61 69 78 78 76 86 100 100
37 32 32 46 71 56 18 16 41 49 42 45 40 19 19 20 16 17 18 18 18 19 20 21 27 50 57 64 82 87 90 95 86 50 56 60 71 80 69 62 62 72 80 72 69 75 68 68 96

GFSSGP_500_rhum_033.txt.gz
RH
10 9 16 24 23 19 10 18 57 59 55 53 66 79 74 47 35 57 58 82 73 76 69 55 52 44 51 76 92 93 90 94 96 95 97 100 92 91 44 9 10 11 9 10 8 7 7 7 11
9 8 10 20 26 20 22 53 43 42 34 39 41 66 71 61 51 62 71 72 80 76 81 62 71 66 88 69 93 96 84 81 96 98 99 99 94 83 21 9 11 15 9 8 7 8 8 9 15
8 9 9 15 22 42 66 60 33 33 46 74 67 53 59 71 75 96 71 56 81 96 94 60 64 56 50 36 50 90 74 91 100 95 97 96 86 60 34 20 25 17 9 7 6 8 8 11 12
9 10 10 21 44 70 59 38 39 34 46 74 81 65 74 52 59 79 72 68 67 66 70 59 57 60 62 69 80 70 83 93 100 97 99 96 80 62 48 53 19 15 17 7 6 8 7 8 9
11 13 14 28 69 47 63 36 21 23 39 75 78 84 75 69 66 69 73 66 64 72 72 63 64 62 64 84 77 76 92 99 96 95 96 91 89 43 41 26 27 18 17 7 8 10 8 9 9
18 17 21 52 43 58 60 62 30 30 49 73 94 70 84 74 62 60 60 58 67 69 72 74 97 88 94 92 85 88 99 96 97 97 95 89 49 46 18 20 28 21 17 18 8 9 10 10 14
20 24 38 49 78 75 58 68 77 58 59 90 96 95 63 59 58 59 48 63 56 64 74 96 96 98 84 85 96 95 94 98 97 96 74 59 33 25 26 22 11 26 26 9 10 11 25 35 49
22 58 74 87 79 85 84 89 98 77 65 75 92 92 70 70 68 61 68 74 71 87 91 96 96 94 91 93 92 97 98 97 85 33 22 16 12 16 25 33 24 13 12 16 39 54 55 52 47
33 67 94 94 87 96 100 95 82 70 74 77 73 73 87 83 65 64 69 77 96 96 96 96 96 96 96 97 97 97 96 92 81 47 39 51 40 54 46 18 10 16 40 52 56 67 58 53 54
63 63 94 99 99 94 98 90 72 82 74 76 79 60 79 66 56 78 72 89 83 83 97 96 96 96 96 96 97 95 94 88 68 59 56 41 33 19 14 20 44 44 40 38 50 43 32 27 17
88 90 99 95 94 86 87 69 55 48 45 66 72 72 67 89 83 89 97 79 77 87 96 95 96 96 97 96 95 83 51 36 66 85 79 74 75 76 89 93 55 58 47 32 17 14 14 13 15
82 84 90 87 89 90 69 57 60 60 68 74 65 55 78 78 88 89 98 88 79 83 93 100 95 94 94 90 91 86 90 78 93 95 83 48 41 44 54 66 65 66 26 15 16 17 18 18 17
100 100 64 73 86 69 79 79 74 80 72 58 62 53 72 93 99 94 88 67 72 75 96 93 85 65 48 49 78 88 88 95 94 90 82 61 40 19 29 58 32 17 18 18 19 18 18 18 17
100 92 89 72 66 72 64 66 82 85 97 84 94 99 98 99 95 85 19 38 35 34 53 64 75 82 78 71 67 57 60 62 88 84 82 50 22 19 17 14 18 20 20 21 22 21 20 19 18
97 81 94 82 51 62 71 88 83 84 90 56 75 86 94 46 40 14 13 14 18 21 20 23 26 30 38 45 46 54 60 71 82 87 50 30 16 16 16 19 22 20 19 22 22 21 22 23 22
95 78 91 73 63 68 85 68 47 56 37 51 32 23 21 19 16 12 18 20 19 21 28 37 31 24 36 57 47 56 62 70 62 71 42 19 17 18 19 19 20 20 21 22 21 21 23 24 23
78 56 71 66 70 87 96 78 59 36 54 34 21 19 18 17 15 17 19 24 22 26 32 37 37 30 31 46 50 68 71 76 70 51 21 17 16 18 19 20 20 20 21 22 22 24 24 25 25
68 57 59 65 74 92 97 83 61 39 51 34 39 22 18 17 16 18 17 16 16 20 34 41 46 61 73 53 32 27 31 34 24 18 17 17 19 20 20 19 20 21 22 23 24 25 26 27 29
64 70 69 86 78 68 98 91 50 42 47 43 58 54 21 22 16 16 16 18 16 18 16 21 53 76 65 43 22 25 24 21 18 18 19 21 21 19 18 20 22 23 23 24 26 28 30 32 32
62 75 88 73 60 73 85 96 53 23 34 32 38 25 27 20 26 22 15 13 14 14 17 28 55 65 58 28 19 23 19 20 20 19 20 20 18 19 22 23 24 23 23 26 31 36 37 38 45
99 90 86 88 93 50 65 76 84 24 22 51 46 23 16 19 15 19 21 22 21 20 31 47 90 98 73 28 25 22 44 37 25 21 18 18 21 22 24 24 24 26 30 35 39 51 56 56 69
96 94 82 77 78 92 36 36 52 54 25 40 63 72 62 21 23 20 19 22 26 29 29 34 91 88 71 43 51 39 62 74 25 18 20 22 23 23 22 24 30 35 40 53 72 76 64 56 62
81 70 68 70 79 96 38 32 45 17 22 58 67 75 67 33 21 26 30 32 40 33 75 51 93 99 84 56 46 74 57 33 19 19 22 23 23 24 31 33 34 37 56 57 59 55 49 59 62
76 73 73 79 77 75 31 40 36 48 66 54 55 58 61 41 33 63 51 48 31 26 40 65 82 73 86 51 59 49 43 25 23 28 27 31 27 27 31 33 42 58 58 88 62 80 98 64 57
68 62 62 78 76 65 67 76 45 67 68 53 42 23 26 19 15 32 29 20 42 27 36 65 81 77 61 30 18 20 23 33 46 51 50 50 44 45 55 47 50 54 57 59 60 69 68 61 64
81 63 56 58 65 56 56 34 41 55 89 61 44 44 38 16 14 16 16 18 26 37 42 98 68 62 34 32 20 21 26 37 57 73 75 61 68 74 53 42 100 66 56 66 67 66 62 62 56
80 53 65 61 46 42 54 55 56 45 79 74 42 65 24 17 16 15 16 18 17 20 32 67 35 23 25 22 22 22 31 56 53 57 57 60 66 64 96 63 59 58 61 66 58 62 59 60 64
61 64 64 57 48 50 67 76 82 65 66 62 36 62 23 20 18 17 16 16 16 19 24 27 20 22 24 22 22 28 42 52 51 56 64 69 72 66 54 56 62 67 70 64 71 69 72 86 100
85 86 74 47 81 59 57 41 27 25 20 19 27 62 54 40 24 18 17 16 16 19 21 22 23 25 24 32 42 61 57 72 65 64 59 75 64 56 64 71 67 62 68 77 78 77 81 90 100
64 82 79 37 41 64 26 16 21 16 13 11 15 28 53 46 43 27 18 16 17 21 23 23 25 26 29 34 36 64 76 99 84 69 83 70 63 76 75 57 62 72 80 78 72 75 90 80 80

GFSSGP_500_rhum_036.txt.gz
RH
14 14 11 10 24 25 17 22 38 82 87 88 97 97 100 90 66 71 58 58 86 77 72 69 70 57 48 60 62 54 88 96 88 77 95 89 83 89 90 74 18 12 11 11 10 8 8 8 7
14 12 11 10 15 28 31 52 45 40 47 67 79 87 82 76 70 71 53 35 47 65 74 84 92 86 82 68 81 73 50 77 95 83 93 92 83 89 93 66 16 11 15 15 8 7 7 7 8
14 13 10 10 10 31 60 62 59 24 22 42 54 65 65 68 75 76 56 55 69 82 77 70 78 92 78 61 65 53 32 76 88 80 93 92 88 93 77 43 15 10 24 14 9 7 6 8 9
12 13 11 12 13 29 52 55 44 31 20 34 53 65 59 67 68 54 58 54 63 65 65 66 74 75 80 80 74 58 72 89 87 96 93 92 98 95 76 74 20 14 29 15 10 9 7 14 8
13 14 14 14 15 40 41 51 36 34 30 30 63 86 90 88 62 59 50 52 73 75 80 82 73 73 81 78 86 99 75 77 93 96 97 95 97 72 75 69 45 44 21 15 14 17 22 14 9
18 18 18 16 18 54 51 66 58 41 43 67 81 95 91 94 86 77 76 74 67 70 73 90 85 94 83 98 95 96 82 90 93 96 99 97 94 92 70 49 22 20 22 18 20 38 18 12 17
21 22 22 25 53 63 72 64 77 48 65 71 61 73 94 99 82 83 75 68 67 68 81 93 98 94 96 85 94 94 96 96 95 98 98 97 93 85 41 30 14 23 24 19 28 26 16 26 35
22 37 82 78 84 90 89 72 78 85 80 89 72 79 97 96 79 71 60 71 75 83 91 88 96 96 98 96 95 96 95 92 96 98 97 89 53 34 17 17 21 20 15 14 18 32 36 37 43
24 98 91 88 90 87 80 77 86 93 88 84 77 73 76 94 75 61 57 59 64 95 96 96 89 96 96 96 96 96 96 96 96 93 83 45 44 34 39 34 36 21 23 41 45 44 39 31 18
34 100 97 94 100 92 88 92 92 94 83 74 68 66 72 75 82 60 61 55 59 73 84 96 96 97 95 97 96 97 96 97 95 93 94 82 68 55 55 47 31 30 42 48 42 34 19 13 15
76 99 95 96 93 95 83 84 96 86 73 78 69 74 73 60 59 72 74 60 81 75 92 94 96 97 97 93 96 98 99 80 75 67 62 55 43 48 73 73 81 75 72 54 21 16 18 16 16
96 100 100 99 94 90 98 97 96 74 68 76 87 78 60 71 68 84 80 90 87 88 78 88 97 96 96 97 98 97 87 91 92 97 97 87 68 50 51 66 80 75 69 36 17 17 15 17 18
97 96 88 87 99 90 80 97 94 75 67 70 65 66 50 52 84 99 90 85 97 99 100 88 92 84 89 95 95 94 92 96 96 97 95 90 68 35 23 23 45 34 17 15 14 16 17 16 16
71 94 89 89 99 98 90 80 88 83 96 83 81 86 80 93 99 91 76 70 81 87 80 87 91 88 90 87 84 79 80 85 89 92 94 74 41 19 20 16 16 19 15 15 16 16 16 16 18
81 79 88 77 95 95 83 69 81 90 82 58 58 85 91 65 59 49 15 23 25 32 64 73 68 63 67 75 71 68 84 74 76 88 62 49 22 20 16 18 19 17 19 18 18 18 18 18 19
64 94 90 87 67 65 100 59 83 73 39 28 25 55 53 27 14 11 19 21 20 24 29 34 38 42 49 53 42 44 52 55 60 65 74 49 17 16 18 18 20 21 19 18 18 19 19 19 18
73 83 81 100 70 68 92 52 70 47 35 24 23 18 21 21 19 20 22 24 33 45 48 33 30 27 42 50 47 44 56 59 57 77 61 20 16 17 18 19 20 19 16 17 20 21 19 18 21
88 70 68 78 81 83 95 72 35 79 48 36 28 20 19 23 23 28 31 32 31 37 42 56 32 35 46 45 34 24 33 35 36 51 18 17 16 18 18 19 16 16 19 21 21 18 21 26 29
87 74 58 58 78 72 100 74 26 50 63 56 39 22 20 18 21 25 24 19 20 26 24 29 49 76 71 54 36 14 19 44 22 22 18 18 17 17 17 16 17 19 20 20 21 29 33 31 42
83 71 70 63 70 80 90 89 40 26 47 51 60 34 24 21 19 18 18 18 15 14 18 36 64 72 68 47 19 21 19 20 20 19 19 19 16 16 17 19 21 21 22 29 35 36 40 64 58
72 61 85 88 64 63 80 82 71 20 41 67 61 44 26 26 22 18 15 15 15 17 20 29 43 60 65 54 15 17 19 26 32 38 29 17 17 18 20 21 22 27 32 38 39 51 57 70 80
90 66 76 65 68 54 41 56 69 36 26 63 68 82 84 23 24 18 17 19 19 19 20 28 61 85 68 47 17 31 39 28 62 62 25 22 22 26 31 36 39 42 54 39 42 50 55 59 65
73 61 55 58 60 52 33 32 40 40 33 37 60 80 86 34 28 35 33 32 34 29 19 36 38 70 92 85 57 43 71 81 77 63 76 40 44 54 56 61 63 79 70 53 95 93 66 66 65
56 59 60 56 58 59 54 35 35 28 76 83 62 62 75 49 19 20 35 75 80 48 31 42 84 92 84 82 60 32 30 46 61 56 63 56 88 76 78 79 89 86 99 100 76 86 73 61 69
59 65 60 63 70 54 63 40 54 77 50 71 47 35 60 48 31 29 33 64 44 52 40 32 99 99 96 86 65 63 47 51 57 80 65 85 100 99 85 85 98 80 82 97 69 62 66 66 58
55 56 63 67 65 61 64 55 48 45 44 52 56 38 35 37 21 17 42 52 23 57 47 45 74 96 98 92 72 56 36 45 57 81 83 100 100 100 92 99 86 99 66 65 66 64 65 64 58
66 71 74 69 58 58 54 40 36 44 66 66 69 60 36 35 14 18 17 17 33 40 42 36 69 80 64 44 47 34 30 42 59 80 99 99 95 98 100 92 84 66 68 70 67 65 63 56 56
68 74 71 53 44 41 40 40 51 74 64 55 67 63 41 39 17 17 17 16 16 17 16 17 59 17 28 35 30 23 25 48 77 95 100 100 100 96 89 88 79 65 60 62 68 60 56 59 66
84 68 62 60 56 53 37 38 60 51 43 42 51 56 50 68 29 23 23 18 17 17 17 16 17 28 36 33 33 46 57 76 89 90 98 86 61 70 73 85 62 58 64 69 67 66 64 72 97
64 56 68 67 58 69 63 28 45 30 22 18 20 18 27 70 59 43 39 32 23 20 18 17 37 56 64 72 72 71 88 94 96 61 56 45 49 73 77 68 61 67 77 76 78 83 75 81 90

GFSSGP_500_rhum_039.txt.gz
RH
24 18 15 14 14 12 20 27 57 86 77 72 83 71 90 93 95 93 83 96 91 82 83 74 75 71 68 70 64 60 67 48 52 79 78 78 81 86 86 84 69 17 12 11 12 11 8 7 7
23 20 15 15 14 11 15 36 32 34 54 68 79 94 66 88 82 88 76 76 75 65 65 82 78 78 84 88 75 62 74 69 44 40 59 79 88 92 94 96 67 21 13 12 13 11 8 7 7
17 16 15 13 12 12 18 31 44 28 24 36 70 79 90 86 87 83 79 86 69 59 47 53 78 82 78 66 59 53 51 58 48 39 60 67 88 90 94 94 50 21 11 13 19 12 10 9 12
16 14 12 13 13 15 23 37 57 54 39 30 44 52 70 70 64 66 66 82 78 68 61 76 78 60 55 65 65 52 62 59 50 79 78 88 91 95 98 82 52 39 10 13 24 16 11 16 17
19 14 15 15 18 29 43 42 50 54 44 48 47 45 64 67 55 58 64 62 61 61 67 72 71 71 62 60 63 67 64 67 83 84 77 80 86 99 99 85 72 49 17 24 29 17 18 27 36
20 18 22 20 24 55 59 45 69 54 38 43 49 52 72 67 89 92 76 69 64 72 72 84 89 86 80 80 86 77 88 96 96 72 88 89 96 97 86 80 75 59 47 33 25 22 23 34 26
20 22 26 28 56 87 92 90 68 64 45 55 60 74 75 83 95 96 91 86 81 82 91 95 96 97 94 90 97 83 97 93 89 85 97 97 97 96 90 81 69 44 23 23 24 24 22 23 33
23 30 60 78 86 82 87 86 70 70 64 61 57 70 70 86 87 92 87 85 91 73 84 95 95 97 94 94 96 96 99 84 93 95 97 97 100 92 70 55 31 14 19 28 18 28 36 43 44
31 96 86 86 93 98 99 92 90 81 69 67 57 52 54 50 76 95 88 69 64 64 72 77 90 98 95 96 96 99 97 94 96 96 96 95 73 55 40 28 31 32 29 30 35 36 46 26 12
72 100 84 95 98 97 88 84 88 84 80 90 83 59 62 71 63 65 90 82 64 63 68 86 96 96 96 97 96 95 95 96 96 94 75 52 49 68 44 44 43 40 40 40 47 57 26 15 15
99 100 96 92 94 86 94 77 88 91 93 79 74 66 68 75 68 64 85 86 67 62 74 78 94 96 94 96 97 97 97 93 97 92 90 83 75 66 50 43 46 54 56 47 52 43 17 14 12
98 98 92 90 91 86 100 99 98 90 84 78 66 59 73 79 80 90 77 91 85 76 78 86 95 97 97 97 96 98 95 90 87 65 71 79 62 59 69 66 71 75 78 76 47 16 11 11 12
97 89 74 81 91 95 100 100 97 87 66 56 52 55 82 74 60 70 81 95 87 79 78 80 85 95 96 97 96 94 86 77 84 86 92 87 82 77 59 31 23 37 35 18 15 11 12 14 16
84 69 78 97 95 96 96 83 83 86 81 92 71 61 85 69 60 75 97 97 95 90 90 91 98 99 96 92 94 97 92 92 93 99 96 88 75 39 20 19 18 14 14 13 14 14 15 16 18
79 97 91 96 98 90 94 73 64 88 76 73 77 97 98 99 97 91 80 76 71 63 67 77 73 66 66 64 59 70 82 85 91 94 91 68 48 23 16 15 14 14 15 18 17 16 17 18 18
84 99 91 91 84 90 88 66 87 76 39 38 55 57 45 61 74 35 26 25 37 52 53 41 41 52 61 60 64 66 70 71 77 84 97 72 63 18 15 15 16 18 18 18 16 17 18 17 16
58 97 88 85 88 97 70 61 90 52 26 22 33 54 21 20 16 18 18 19 25 31 38 46 45 57 68 64 58 56 62 60 60 64 64 79 64 19 15 17 18 18 16 17 18 18 17 18 17
45 86 88 78 95 100 75 52 60 80 36 24 22 25 22 23 21 23 25 29 42 52 39 32 29 36 41 45 44 40 46 59 55 61 73 51 39 21 18 19 18 16 17 18 19 19 21 19 16
63 91 78 73 86 100 86 61 95 77 61 38 24 23 27 28 26 30 44 52 57 52 53 49 39 41 46 48 47 38 19 22 42 62 57 22 20 19 19 16 16 18 19 19 23 26 26 24 23
60 76 68 64 60 97 99 93 64 54 49 62 58 27 26 28 31 36 32 31 35 33 28 33 48 67 75 65 52 25 25 32 49 42 38 20 21 20 17 17 19 25 33 37 48 52 56 37 32
53 64 77 74 59 93 94 95 81 51 45 58 65 36 34 28 26 24 23 22 20 19 22 32 53 57 69 68 64 24 21 20 32 48 29 34 49 23 29 32 45 53 59 66 58 59 55 52 59
62 47 64 74 80 66 65 76 81 46 59 72 76 79 35 28 26 24 19 16 18 19 19 27 39 56 68 84 83 30 20 20 34 37 60 77 63 66 60 52 68 76 70 64 60 67 70 90 96
73 64 59 68 64 75 65 35 48 49 33 80 98 87 89 55 24 23 22 20 18 15 14 15 22 39 80 85 74 64 53 48 69 56 52 54 58 64 60 61 82 80 75 74 78 83 92 98 100
60 60 55 54 60 62 61 52 35 36 66 63 96 97 87 96 60 26 28 24 28 23 29 25 20 44 62 100 93 80 56 31 33 41 50 60 78 81 81 90 86 84 79 85 95 89 100 81 68
55 57 53 52 54 53 55 51 60 66 42 62 76 78 83 90 82 30 23 27 28 61 67 47 28 27 78 96 98 96 94 89 42 30 46 80 81 97 96 95 91 88 96 100 100 96 82 75 58
60 62 56 50 52 59 54 49 60 57 40 34 61 62 52 81 64 50 40 32 35 64 55 37 44 49 58 97 96 81 44 58 54 37 56 83 83 91 98 100 89 97 97 100 100 90 83 65 64
65 55 56 55 55 53 46 50 56 42 44 47 46 66 55 48 46 29 21 18 19 51 45 73 49 36 57 98 92 67 60 45 41 67 73 82 87 91 95 89 86 93 100 100 100 92 66 64 78
67 69 71 68 60 51 38 37 47 46 46 72 68 72 68 51 51 20 19 19 19 21 23 22 46 30 36 43 45 59 65 76 83 86 88 99 99 94 96 99 99 93 100 99 96 82 89 96 73
80 74 85 73 57 44 39 43 46 46 54 53 58 61 74 74 52 54 22 18 18 18 18 19 19 20 20 28 54 69 66 71 74 81 98 98 86 100 90 57 59 81 87 100 94 95 86 84 74
81 70 78 83 68 53 39 35 61 52 61 49 31 22 24 26 40 62 70 49 34 36 38 32 24 23 24 73 75 82 74 78 77 99 85 88 97 69 49 44 63 91 64 85 82 90 93 93 90

GFSSGP_500_rhum_042.txt.gz
RH
17 26 26 19 20 17 31 42 33 27 47 46 53 76 98 98 92 97 91 94 97 82 74 81 68 61 65 68 66 62 56 40 44 35 39 76 80 79 89 88 79 68 42 23 18 11 11 9 8
26 23 22 19 19 38 64 63 35 36 39 40 69 81 91 83 87 92 95 92 94 89 88 96 74 67 67 71 75 68 55 33 57 55 38 37 55 68 77 89 87 78 49 27 19 13 13 10 8
22 19 17 17 16 31 76 69 36 46 35 47 60 80 89 98 95 98 95 96 92 89 73 75 64 73 81 76 75 73 44 30 39 60 47 67 86 92 89 92 92 82 52 32 26 16 21 14 12
22 19 14 14 16 19 24 28 39 69 53 40 36 59 84 92 95 93 84 92 80 81 73 68 64 58 64 70 62 48 41 42 45 57 65 100 92 82 95 98 94 83 48 26 18 13 21 13 18
24 20 15 14 15 16 14 17 43 69 68 58 41 34 40 70 68 81 79 70 63 53 64 79 74 67 64 53 47 49 53 56 67 73 67 98 84 87 96 93 87 81 51 33 11 21 24 19 24
22 19 19 59 25 18 20 26 45 56 64 58 47 38 38 41 76 69 57 53 60 68 68 85 80 69 74 97 79 68 75 71 87 86 88 98 92 96 97 94 86 69 70 37 31 32 23 23 21
20 18 34 23 25 71 87 97 86 86 76 47 43 41 41 42 57 65 64 77 68 86 92 88 90 79 90 91 94 94 96 94 95 99 100 97 96 97 92 87 78 75 66 64 29 24 23 21 39
22 29 45 47 100 100 100 98 89 85 75 61 40 37 38 38 53 81 84 92 95 96 96 90 92 94 91 88 96 94 92 95 96 97 96 95 96 98 92 91 85 64 53 18 20 23 39 41 42
24 67 94 82 88 80 96 99 89 78 70 58 47 37 36 44 40 69 80 67 80 92 89 95 96 96 94 96 92 95 97 96 95 93 97 96 96 92 88 76 44 17 23 29 29 41 43 44 38
39 94 82 85 83 89 94 79 97 85 78 60 47 55 45 43 42 43 38 45 58 88 85 79 75 82 87 93 84 96 98 96 93 96 97 89 94 81 62 45 35 39 36 40 45 48 46 52 27
48 85 83 83 97 99 90 83 75 82 95 86 74 70 60 59 48 57 57 52 60 87 95 80 66 96 96 96 96 95 97 96 97 96 90 83 72 61 61 47 47 45 53 65 75 72 60 33 14
72 76 80 81 96 95 96 96 81 95 80 75 68 71 73 73 72 73 62 70 72 80 80 67 74 97 97 96 96 96 97 97 95 97 79 72 70 66 58 51 53 57 59 65 77 62 32 14 14
77 75 71 81 87 92 99 96 85 92 91 75 75 73 82 78 89 79 75 83 70 74 71 78 77 92 94 96 98 96 96 95 98 89 72 72 70 72 77 65 53 43 35 34 22 18 16 16 14
67 78 77 68 77 90 92 89 81 86 81 89 87 80 84 94 98 91 88 99 78 77 85 83 86 94 96 96 96 96 96 96 86 72 80 92 87 86 60 34 20 17 15 18 20 16 15 13 13
76 82 98 78 90 88 87 89 78 79 63 94 96 90 98 94 92 89 96 86 96 76 72 97 100 97 96 93 88 80 79 80 81 95 96 94 80 62 31 18 18 16 18 16 15 15 15 15 16
79 92 99 96 91 85 71 86 80 77 61 51 44 97 99 96 96 95 96 93 85 87 94 95 93 92 87 74 72 86 93 87 91 97 94 90 66 55 22 18 16 15 15 17 17 15 16 15 13
76 100 96 95 95 99 75 77 88 47 27 26 47 31 67 69 69 56 46 37 27 29 30 33 35 40 42 45 55 66 60 60 67 83 82 95 90 76 30 16 15 16 18 16 16 16 15 14 22
100 100 97 93 96 95 78 74 65 51 32 28 29 30 23 32 35 30 42 38 36 46 45 36 32 43 58 58 63 65 62 65 73 79 78 72 84 52 27 17 18 18 15 16 17 19 30 33 31
34 92 100 90 69 94 87 100 83 63 65 34 29 32 31 30 30 30 31 36 51 45 38 39 36 38 46 41 47 42 41 58 60 56 62 86 72 33 20 21 19 16 17 21 35 40 45 38 30
47 56 74 69 64 90 93 82 94 60 80 48 36 27 29 28 28 31 41 47 47 41 46 51 56 70 61 68 66 50 29 23 36 53 72 68 27 24 24 23 19 24 34 35 40 45 41 32 43
52 50 54 50 55 88 100 94 93 58 47 55 48 36 30 26 25 31 32 28 33 44 39 36 52 68 84 88 77 65 27 27 31 44 64 73 51 56 60 62 56 65 61 54 57 55 64 50 69
53 56 56 64 58 100 91 100 97 62 54 51 52 29 33 33 29 26 26 26 25 24 23 23 31 42 56 71 84 78 58 29 28 32 63 67 72 85 76 68 69 74 64 51 58 69 77 71 75
58 71 57 60 69 63 71 78 99 80 42 61 64 65 35 22 24 22 24 20 19 19 17 19 25 32 40 61 80 83 69 42 37 50 78 77 50 66 78 94 98 72 59 70 78 83 73 63 82
54 61 71 68 68 65 69 74 90 58 50 46 73 89 70 66 59 24 22 19 18 19 18 18 18 19 20 50 64 78 92 75 75 64 44 48 41 51 82 100 93 77 73 84 86 85 57 90 98
47 54 93 100 75 82 60 56 82 56 39 47 70 86 75 70 79 76 46 21 25 26 25 22 30 59 38 97 93 97 98 98 91 98 90 61 46 72 95 95 88 81 89 92 97 84 98 82 79
45 45 90 96 80 99 60 56 83 52 49 40 53 70 78 83 92 98 99 81 36 21 24 25 36 48 42 36 44 93 100 97 97 97 79 69 72 83 87 87 84 75 66 78 96 88 62 65 92
57 45 56 70 68 70 65 58 54 48 48 33 40 41 67 65 63 70 66 56 48 40 37 29 35 52 66 55 76 97 89 70 66 72 76 87 86 96 98 95 93 89 100 100 99 62 59 91 86
62 59 61 59 62 66 93 63 90 49 40 37 37 47 61 69 74 64 45 21 20 21 24 33 39 43 34 41 34 70 29 44 72 84 82 80 85 93 100 100 100 100 98 80 51 55 86 95 94
58 62 60 64 64 83 77 83 52 69 65 55 44 62 63 78 66 74 56 30 24 20 18 18 18 19 20 18 18 20 27 84 95 94 85 77 84 99 99 100 92 91 64 45 53 80 94 100 90
56 65 72 70 76 72 73 56 54 55 69 68 52 51 42 47 58 71 71 65 62 40 44 37 30 34 33 25 24 31 81 88 93 70 70 80 87 87 92 70 43 41 42 51 75 92 87 86 87

GFSSGP_500_rhum_045.txt.gz
RH
6 13 20 25 25 21 50 65 63 93 64 68 50 94 68 45 92 94 97 97 84 82 81 75 83 83 76 69 65 66 63 60 53 40 42 40 51 58 73 75 78 68 66 52 33 28 15 11 10
9 18 22 22 23 60 61 59 87 78 88 90 64 29 27 94 67 88 84 94 73 76 91 95 93 88 74 63 57 58 59 71 46 41 47 44 39 48 55 70 82 80 76 65 41 26 15 12 12
14 18 21 32 60 66 57 84 82 99 44 39 41 37 60 27 79 79 75 82 94 99 97 97 96 92 79 68 61 60 65 74 47 36 46 65 48 53 49 53 76 90 84 74 46 21 14 15 17
16 19 20 15 68 70 65 94 80 56 69 37 46 100 35 30 56 82 73 59 93 96 96 97 96 92 78 63 62 75 68 59 50 42 53 62 58 68 76 74 88 94 91 80 55 22 12 18 18
13 20 35 90 73 70 76 79 79 22 67 95 39 79 24 29 47 57 74 96 77 72 82 77 79 78 70 66 57 52 48 47 45 62 71 82 73 84 86 80 83 90 90 72 49 27 10 20 21
16 22 73 85 79 74 74 52 33 37 96 92 52 73 41 27 32 45 41 56 95 90 49 67 73 62 74 71 53 72 88 57 75 86 84 95 91 92 88 92 91 86 76 58 55 38 26 28 23
16 74 88 77 77 86 57 84 46 100 97 29 56 54 45 41 31 33 32 62 76 94 88 90 90 67 71 66 54 79 82 90 86 90 94 96 90 100 95 92 92 86 76 58 62 52 28 23 23
15 18 86 83 99 96 97 37 64 58 70 42 41 53 54 42 40 36 35 38 59 95 87 92 96 88 95 87 69 76 96 94 96 93 96 96 99 94 96 95 85 84 83 75 62 18 21 42 37
15 49 96 93 90 100 83 93 95 64 38 31 32 36 59 58 48 43 43 55 66 82 92 89 95 96 96 94 86 90 96 91 95 96 95 96 94 96 96 95 92 82 65 26 22 29 42 38 39
17 94 99 92 98 98 82 85 76 76 91 84 50 37 33 39 60 53 39 51 69 80 76 63 90 90 95 96 96 94 91 97 94 96 95 94 96 96 93 91 77 44 23 33 33 39 44 40 47
59 95 99 100 87 85 81 84 55 85 94 100 79 68 41 47 48 65 44 46 56 75 52 50 81 91 77 75 94 84 88 98 95 96 98 96 96 94 83 65 40 39 43 43 74 74 79 59 47
19 100 97 98 67 71 69 86 79 80 92 85 82 72 70 64 58 61 45 47 63 59 72 61 93 96 90 70 95 98 96 97 96 95 97 95 96 70 60 53 51 48 50 66 73 83 60 27 14
22 52 41 56 69 74 96 76 61 68 92 83 83 73 75 81 81 78 73 79 76 64 64 70 86 84 76 97 96 100 96 96 96 97 96 96 95 73 61 55 60 64 60 46 58 48 19 14 13
41 17 58 30 50 69 77 82 66 63 68 70 80 76 85 95 86 85 91 88 74 69 74 88 84 98 98 100 90 94 89 97 97 96 96 97 76 65 60 72 64 45 23 27 19 17 15 17 14
17 30 89 80 90 79 59 89 53 57 66 60 83 94 96 95 90 96 97 94 81 62 74 79 97 95 96 90 96 97 97 95 97 96 93 87 75 75 71 43 27 21 18 16 17 19 17 13 11
26 89 96 96 54 70 51 97 64 59 57 55 41 88 96 94 95 97 99 98 75 85 75 98 99 97 97 96 96 97 96 89 82 86 96 91 78 65 56 32 22 19 18 18 18 16 12 12 12
54 100 93 87 69 70 90 96 49 63 42 22 42 34 92 83 96 98 97 96 94 90 98 98 98 97 94 88 69 65 75 85 85 98 100 87 85 79 81 64 20 18 18 17 15 14 13 12 14
96 98 90 100 96 59 72 99 82 62 64 23 26 30 29 72 84 75 64 34 37 36 40 46 59 82 65 54 49 56 59 62 82 91 78 77 83 84 99 56 24 18 18 16 14 13 14 21 30
100 100 86 90 87 66 77 100 95 69 56 47 29 26 28 33 80 45 28 35 30 20 19 20 28 51 75 51 43 50 53 61 69 67 71 80 81 96 82 36 21 18 18 16 16 24 43 39 40
38 99 95 100 66 50 83 96 95 95 45 70 33 21 28 28 26 27 30 32 34 27 26 28 28 43 60 68 58 41 40 37 30 37 52 72 96 96 47 25 21 22 26 31 33 54 64 30 33
40 99 97 91 100 46 45 72 100 92 31 49 54 30 21 24 28 32 33 30 28 29 32 36 36 34 40 44 46 55 55 43 25 30 52 71 76 50 34 47 55 70 73 68 61 62 56 46 53
100 82 66 57 45 100 95 98 92 100 60 37 50 46 27 23 20 19 19 19 19 19 19 16 16 16 23 33 39 49 53 61 28 25 30 35 77 86 60 82 90 77 86 85 77 64 50 34 51
94 56 42 47 100 100 95 83 89 75 94 99 43 43 49 24 26 24 21 17 16 16 15 14 14 14 13 15 21 31 50 67 72 26 30 33 57 81 67 66 61 71 80 91 86 77 56 56 55
42 53 53 50 95 98 91 93 95 100 93 100 98 65 64 56 61 55 29 17 17 18 17 16 16 16 18 43 32 36 83 72 82 94 90 57 68 56 60 56 70 89 99 97 92 82 56 52 48
48 46 85 99 99 72 96 61 100 92 84 42 64 100 76 48 41 70 83 94 71 23 19 19 21 24 23 47 96 69 64 75 85 96 96 93 94 96 95 80 79 90 96 96 94 89 77 41 80
48 70 91 96 100 100 85 48 87 78 46 50 44 49 58 66 65 76 73 85 89 73 60 46 35 35 28 75 81 80 74 66 94 96 97 97 97 98 95 92 94 98 100 100 98 95 80 84 100
94 50 96 81 75 76 97 83 70 49 49 53 46 39 41 64 70 63 66 73 77 64 51 50 38 30 28 44 66 91 59 40 45 45 66 82 86 88 89 81 86 94 100 100 99 92 90 93 98
73 80 64 58 90 79 91 95 98 90 48 40 41 40 44 48 78 80 64 73 70 32 21 20 25 26 30 36 33 30 24 22 18 20 59 84 97 84 72 70 80 72 84 97 100 100 88 80 47
49 46 55 100 100 99 97 97 95 88 63 52 50 51 46 67 93 87 85 75 62 33 23 20 19 18 17 18 20 19 25 25 25 37 81 80 78 49 46 50 37 42 44 77 60 31 30 40 46
98 64 79 98 99 96 71 55 96 74 52 51 54 47 48 54 70 85 78 75 83 71 62 42 29 28 22 22 28 38 35 24 35 49 51 64 48 17 11 13 14 14 22 76 43 32 40 57 100

GFSSGP_500_rhum_048.txt.gz
RH
9 5 3 7 15 19 28 26 46 77 85 79 67 76 94 48 81 69 74 97 76 96 97 90 84 77 79 78 72 68 67 67 64 58 52 44 42 38 46 61 64 73 67 64 55 40 33 22 15
7 3 5 11 18 59 64 74 52 69 87 64 59 88 67 83 75 52 82 96 85 94 94 94 91 82 77 77 80 78 75 73 68 65 50 38 39 36 37 55 59 68 77 70 71 52 39 24 17
4 4 8 16 52 70 65 77 92 73 93 59 46 57 28 66 94 71 82 75 97 94 87 96 93 81 91 93 91 82 73 80 78 73 49 36 44 49 38 36 40 54 80 79 79 63 47 27 18
4 6 18 34 54 60 75 72 86 95 57 30 24 35 27 65 93 32 25 32 70 89 90 91 91 95 93 92 85 83 83 87 83 71 57 45 39 48 49 53 62 76 87 87 88 70 49 35 20
5 14 35 96 96 94 69 64 76 39 41 22 20 28 32 62 98 24 46 27 42 70 60 82 96 96 96 95 91 94 91 69 50 44 49 53 54 60 61 69 86 79 88 85 84 68 47 39 18
8 28 90 97 94 86 64 27 26 16 32 22 37 95 29 45 61 50 24 36 64 59 72 49 80 88 91 87 88 82 66 46 61 52 54 64 71 73 74 78 88 87 89 83 72 63 47 43 28
14 46 78 94 74 69 53 44 20 40 51 53 56 76 49 95 91 66 44 46 68 66 75 80 90 88 85 92 76 73 69 64 89 96 70 86 78 83 99 84 92 93 85 80 68 54 53 44 24
14 35 88 99 91 59 77 67 67 56 22 35 79 58 92 93 62 67 50 49 61 82 75 84 86 100 98 92 72 71 84 76 97 82 81 85 92 93 95 82 95 96 90 82 76 70 30 22 42
17 68 94 88 99 79 85 100 99 94 56 44 65 79 78 79 76 60 53 53 65 67 92 96 96 95 92 96 98 85 86 90 97 96 75 96 95 96 91 96 95 96 86 81 61 22 30 41 41
19 83 95 99 79 51 23 42 30 80 82 53 95 95 87 43 78 60 52 53 60 73 89 95 85 92 74 93 97 96 95 97 96 94 96 96 96 93 97 95 96 92 80 39 25 29 36 43 40
47 99 96 65 49 30 36 53 61 76 66 95 89 96 100 55 71 58 41 57 49 65 60 75 94 74 72 88 95 94 96 94 97 95 97 96 96 96 95 96 85 78 28 34 38 50 59 62 64
40 22 41 33 19 45 50 50 42 41 49 52 68 72 69 57 47 50 51 55 48 43 60 89 76 74 64 90 92 93 95 96 94 95 97 94 97 95 96 94 60 39 43 46 64 82 81 62 33
72 46 18 29 26 48 63 89 43 69 41 52 58 61 58 70 66 53 50 54 43 50 60 64 62 65 65 77 86 95 88 94 97 97 94 97 97 96 95 94 65 50 63 70 65 59 73 22 13
62 21 11 64 44 77 59 65 69 75 43 41 64 82 66 57 59 60 59 67 66 60 57 65 70 66 68 96 93 95 95 96 96 95 95 97 97 96 93 63 62 68 57 43 36 41 17 13 13
13 9 14 97 49 93 74 82 90 50 33 44 57 59 82 68 50 66 75 75 78 78 76 77 78 82 97 77 96 97 96 97 94 95 92 97 95 86 74 78 75 43 21 22 18 16 15 14 13
14 23 61 98 74 92 61 97 97 52 54 39 40 42 72 73 69 89 92 87 74 68 61 67 73 84 89 96 96 95 95 96 96 96 97 93 85 81 80 65 30 19 16 15 16 16 16 15 12
38 62 81 71 77 77 63 83 96 75 58 53 30 35 42 78 76 91 97 95 80 75 73 86 95 98 99 96 97 95 88 96 98 94 86 75 79 74 58 68 42 20 17 17 16 17 16 12 15
100 100 99 74 81 69 63 93 93 97 66 59 45 40 22 61 61 86 66 64 62 84 97 100 99 97 97 94 76 69 75 71 81 89 89 84 93 94 95 91 86 29 18 17 18 18 13 13 26
100 92 94 98 58 66 47 95 99 88 79 39 38 19 22 25 58 38 41 50 62 22 20 35 81 95 85 40 34 37 45 49 47 46 50 66 81 78 72 90 76 56 19 18 17 15 20 42 56
48 60 98 100 96 53 44 68 94 68 51 26 24 32 22 39 26 50 29 36 30 22 23 33 36 49 59 65 40 34 38 39 38 36 43 62 79 77 70 78 51 35 20 19 26 49 70 70 67
16 56 99 65 85 43 41 48 93 98 92 52 30 25 29 17 18 44 25 21 21 21 22 25 22 18 20 23 32 41 43 50 50 33 21 22 41 64 79 75 38 36 34 57 85 76 85 85 78
58 88 98 81 92 78 66 84 75 88 71 55 42 24 30 20 16 14 14 14 14 14 14 13 11 11 11 11 16 19 24 39 49 62 33 27 54 71 75 76 74 70 87 79 76 81 97 92 75
62 74 93 32 45 83 71 63 100 82 77 98 65 61 39 44 20 22 19 14 13 12 12 12 12 12 13 13 31 40 27 26 51 77 91 49 47 43 46 67 64 69 55 78 91 94 94 92 91
48 39 52 44 35 40 76 100 94 90 87 96 94 85 55 46 43 33 59 69 60 25 14 13 12 14 16 20 30 46 86 58 72 68 96 97 90 76 57 70 79 63 76 79 90 86 90 89 96
36 39 53 85 73 51 70 74 98 74 92 98 92 74 69 56 21 30 56 67 65 82 81 58 34 29 26 28 32 37 94 92 95 82 76 92 96 97 98 96 98 98 98 93 98 92 85 91 91
31 35 66 94 89 94 90 74 96 55 78 62 54 54 58 41 28 30 50 52 43 67 67 55 46 35 26 19 25 77 94 95 82 38 27 28 61 97 97 97 98 96 87 86 84 81 72 97 100
31 31 49 97 92 91 58 86 73 70 57 61 43 42 43 55 60 49 62 51 38 39 38 34 21 19 18 17 45 86 90 67 60 48 24 17 24 81 97 94 82 61 67 69 70 53 70 98 100
23 56 61 80 77 77 95 75 97 87 96 71 48 41 40 34 37 48 52 68 57 42 35 34 25 46 20 16 19 20 31 54 19 21 19 18 26 79 66 71 72 42 18 12 23 19 24 22 89
30 29 62 83 91 79 47 96 79 93 100 74 56 39 42 48 38 44 68 99 95 97 87 58 44 36 36 28 29 19 22 48 20 31 42 20 53 49 38 43 30 23 14 13 10 11 15 16 22
23 41 54 67 79 98 63 80 100 98 91 80 50 44 33 34 38 35 72 99 100 96 80 60 58 64 98 89 78 73 55 37 52 78 54 63 55 49 44 35 35 11 10 12 15 16 21 26 31

GFSSGP_500_rhum_051.txt.gz
RH
19 12 6 3 2 4 20 33 36 69 88 91 85 92 76 80 80 81 94 97 75 93 97 89 96 94 88 81 66 64 65 65 61 64 67 60 48 44 40 38 46 63 65 64 59 56 47 40 42
16 8 3 2 6 13 45 39 75 88 94 84 83 81 83 81 93 71 68 89 76 77 94 92 97 100 88 73 76 82 79 78 76 72 69 63 49 44 42 50 54 67 74 75 70 66 60 48 45
12 4 3 8 14 34 65 80 81 91 98 91 92 98 90 94 84 57 70 86 76 70 77 94 90 98 94 88 80 84 83 76 82 80 81 67 46 43 39 43 39 45 46 72 78 73 67 59 51
6 3 8 20 39 52 76 93 88 77 99 82 78 78 87 72 82 96 77 78 72 74 64 61 92 95 96 81 83 82 77 87 87 89 88 75 53 47 42 48 51 56 59 62 76 79 75 69 56
3 6 12 18 52 84 87 83 77 70 59 67 74 80 36 28 48 90 95 97 82 52 46 60 89 96 97 98 94 89 90 94 85 88 70 53 55 56 50 49 49 62 69 77 81 84 80 69 51
4 6 11 58 98 98 86 67 59 57 60 32 42 39 28 31 61 77 94 95 53 43 60 67 73 78 88 93 94 89 93 95 83 58 44 58 62 64 68 65 70 68 79 79 82 78 69 60 52
4 10 20 46 81 96 70 63 74 82 18 13 20 26 41 55 80 59 80 97 62 48 52 45 54 60 86 99 96 93 100 76 61 52 48 57 62 80 95 86 86 84 85 90 82 74 67 63 58
6 13 35 81 98 99 87 63 52 46 65 61 66 72 82 96 80 94 96 96 69 72 64 71 76 88 95 97 97 94 53 52 51 50 46 88 89 86 95 98 99 92 87 95 84 74 72 40 24
6 24 51 92 100 97 87 91 48 35 53 76 96 46 62 95 92 88 96 96 81 87 95 97 84 72 88 95 97 96 76 55 40 54 50 92 97 94 95 96 96 96 97 92 83 73 32 28 40
8 21 67 96 100 96 83 95 43 54 72 73 65 86 81 90 88 95 97 96 81 82 92 96 98 98 96 97 88 91 96 90 95 94 66 84 89 92 96 95 97 96 98 88 68 26 27 37 44
10 18 44 96 100 34 41 47 58 89 70 56 64 71 55 82 72 54 87 65 58 62 68 89 95 94 94 92 83 84 89 95 97 95 94 96 95 90 96 96 96 96 87 73 26 30 39 47 47
14 21 31 61 61 31 40 47 64 87 99 51 65 67 62 74 81 42 55 62 52 64 49 53 62 69 89 78 64 81 93 96 98 94 95 84 96 93 97 96 96 95 63 26 35 41 65 73 75
18 57 22 15 36 34 46 63 100 86 94 57 61 51 70 59 63 46 46 47 50 59 46 40 50 54 67 56 64 76 99 93 86 92 95 91 95 91 98 97 95 84 33 42 47 59 70 77 49
10 17 11 35 64 51 45 69 87 91 74 44 37 36 52 68 50 47 47 52 51 54 50 44 48 62 60 63 68 79 95 95 96 90 90 94 90 96 98 97 96 85 60 59 56 49 50 49 15
8 8 9 61 97 64 75 95 88 72 56 43 27 34 38 62 67 50 58 63 50 61 56 62 62 44 54 64 65 67 90 98 94 85 99 94 97 97 100 94 87 80 66 47 35 40 31 16 14
8 16 52 60 71 72 89 88 84 95 77 54 38 34 48 57 58 76 91 87 68 65 67 72 62 54 63 74 75 84 92 96 95 87 94 99 98 99 96 95 95 99 38 22 22 20 17 14 14
14 53 65 98 90 91 85 50 61 90 73 72 43 23 42 73 90 100 98 81 71 69 62 48 57 54 67 74 80 93 94 96 96 74 88 98 97 96 90 85 49 30 21 18 17 17 15 15 16
42 63 93 97 100 95 88 53 76 66 51 32 32 20 30 34 67 59 46 34 54 71 61 73 77 81 87 75 75 86 96 86 84 95 89 77 84 80 64 78 87 60 43 18 17 16 14 16 16
24 77 100 99 100 100 74 53 47 58 84 43 23 38 32 33 29 32 36 41 28 25 58 89 94 77 62 56 68 63 60 61 62 52 46 57 72 87 94 84 82 86 95 32 17 15 15 17 24
29 33 51 98 93 81 85 64 34 68 85 74 25 26 29 27 23 37 27 21 25 22 28 43 62 63 56 34 24 30 35 36 38 38 40 49 62 72 70 69 79 87 87 39 20 20 18 24 68
21 12 49 87 96 100 89 64 54 72 77 94 46 26 30 20 15 29 27 18 13 15 15 14 14 14 13 12 22 22 28 50 54 46 29 28 41 57 79 78 92 86 81 92 63 41 48 75 68
34 33 43 49 66 88 87 66 77 91 62 71 55 51 36 17 17 14 14 13 12 13 12 10 10 11 11 12 22 20 20 30 34 44 60 59 45 38 54 70 96 68 54 88 82 80 72 84 76
35 35 69 64 47 59 80 56 100 86 77 72 80 33 43 46 32 46 54 41 17 13 12 10 10 11 13 15 30 53 58 38 38 59 68 82 69 88 88 44 63 79 97 79 93 96 88 84 84
35 33 49 41 30 18 31 90 85 98 94 66 47 54 27 30 39 28 39 50 56 52 25 13 12 13 14 15 17 25 50 86 85 73 72 86 97 95 95 98 94 70 83 100 92 90 96 96 93
30 39 37 39 33 54 80 88 65 88 58 67 35 27 24 28 26 22 26 43 40 49 47 31 20 18 18 16 23 24 35 54 73 80 73 90 57 55 64 94 98 97 97 97 98 97 96 89 92
21 34 40 49 76 54 48 62 80 63 79 78 81 43 29 26 22 25 29 21 33 36 29 34 38 32 22 25 24 34 57 99 67 86 60 46 59 38 42 75 96 97 98 97 68 34 45 58 40
26 33 50 53 76 68 83 98 94 81 63 90 79 58 54 36 27 28 28 29 30 26 41 35 28 22 18 16 17 20 29 25 65 67 61 22 24 32 28 66 100 81 76 57 35 18 12 12 14
25 33 80 69 56 93 93 85 95 94 93 75 86 68 51 38 42 34 31 27 22 30 56 58 46 42 37 53 62 37 30 20 30 77 29 20 42 56 42 71 80 52 50 37 34 16 12 14 19
34 32 47 94 69 70 77 82 67 87 84 96 64 56 43 37 35 34 24 16 19 27 74 57 75 97 70 81 67 78 69 47 43 99 71 54 77 77 64 64 50 56 41 30 17 14 14 15 20
52 53 38 57 80 86 48 45 76 80 90 70 83 63 46 32 35 28 21 18 16 26 60 99 96 96 74 62 69 88 85 98 89 98 60 67 86 94 73 58 58 49 30 14 13 13 15 24 22

GFSSGP_500_rhum_054.txt.gz
RH
25 27 21 8 3 3 8 32 54 63 79 85 74 81 97 85 80 93 88 98 74 82 77 87 98 96 92 97 91 92 88 70 59 49 55 58 64 58 49 45 47 64 66 61 60 60 52 44 40
29 24 12 3 4 7 41 52 68 74 67 62 72 70 82 85 97 95 96 82 70 83 86 90 97 95 96 97 89 85 75 70 68 63 64 70 70 64 55 44 46 52 58 73 71 67 62 59 45
29 18 4 4 11 27 47 45 49 68 69 78 82 82 71 76 72 87 83 92 86 79 70 79 87 93 93 91 96 85 74 70 67 70 79 81 75 67 48 45 46 47 54 65 72 70 68 64 54
16 5 4 13 35 57 48 38 35 74 83 80 72 53 53 71 72 81 86 83 70 84 78 63 73 70 87 98 98 91 80 63 74 82 85 83 95 87 50 45 48 52 50 50 52 59 78 78 66
8 3 6 25 36 44 46 66 92 85 77 72 47 58 64 38 46 48 62 72 70 78 60 66 66 73 84 83 96 96 83 78 87 89 92 91 87 71 64 56 54 47 55 63 64 73 83 87 76
4 4 10 16 18 27 49 88 97 89 77 77 58 33 43 50 39 30 21 35 62 92 97 84 81 86 94 96 96 95 84 100 88 92 96 87 77 63 56 48 56 58 59 64 70 76 84 82 62
4 7 17 19 23 41 82 83 93 69 68 62 80 56 42 28 22 25 34 36 90 95 97 90 81 96 96 92 91 96 85 92 94 100 92 81 58 53 53 57 63 69 73 74 85 85 85 71 44
5 14 25 30 52 98 86 65 63 75 60 45 74 63 52 59 66 50 76 78 98 96 91 81 87 77 65 70 80 92 96 98 91 97 86 64 46 58 74 74 59 79 83 90 90 89 81 71 57
7 13 23 50 47 60 63 94 40 38 56 64 55 63 89 86 86 72 82 96 95 96 96 95 88 64 74 72 75 96 96 95 96 90 77 54 57 61 90 90 93 95 95 95 91 93 83 71 27
9 11 26 56 52 64 54 47 35 43 52 60 53 55 67 66 71 79 82 93 96 98 92 95 95 82 79 94 95 96 95 96 96 90 69 63 79 74 77 81 96 98 96 97 98 86 69 28 39
10 9 18 49 59 82 40 32 42 49 54 82 50 40 43 43 67 88 84 89 94 81 90 94 97 97 97 92 96 93 94 98 98 97 95 96 96 95 95 96 96 96 96 94 93 75 29 34 38
7 9 9 19 59 40 39 36 54 66 69 58 50 51 55 54 57 74 72 52 56 59 44 48 81 94 95 97 95 83 70 88 94 91 98 97 100 96 81 92 96 98 98 96 93 35 30 37 40
7 6 8 24 24 51 52 60 71 85 66 57 38 39 43 52 46 49 46 34 52 51 45 52 45 72 92 94 83 62 65 84 92 91 96 100 98 85 79 97 99 99 100 95 42 33 43 57 68
7 6 10 17 64 66 54 55 69 87 62 59 39 41 36 46 54 39 42 44 47 42 36 42 43 47 66 76 69 66 62 82 94 95 88 99 99 89 84 90 97 99 92 54 40 47 64 71 76
6 6 9 70 68 46 55 60 58 94 68 83 40 32 38 45 49 53 45 54 53 50 37 45 58 48 66 71 100 95 65 82 98 98 88 100 95 93 96 91 97 99 89 59 58 63 62 62 57
7 9 24 65 48 56 90 78 60 70 70 45 26 29 33 57 66 66 55 43 50 51 47 47 51 77 82 68 68 69 81 94 98 92 100 100 96 94 93 93 97 96 88 72 53 42 49 46 18
9 14 62 69 51 64 92 80 70 65 36 31 26 35 37 64 68 77 73 73 61 54 52 59 68 75 76 75 81 69 74 74 78 94 97 86 86 89 95 99 97 100 98 45 25 36 32 20 18
15 27 50 41 61 85 93 60 48 71 84 34 32 33 35 46 45 42 26 62 63 53 60 56 64 66 76 76 70 65 72 67 79 90 98 72 83 98 96 94 94 83 43 27 23 21 20 20 19
12 16 28 62 95 84 91 67 54 60 83 50 20 28 21 40 31 28 35 23 52 84 87 99 88 80 70 58 58 69 78 76 74 78 64 76 84 81 84 93 90 99 93 72 22 18 18 19 18
11 13 34 57 99 100 91 89 53 40 75 81 25 28 21 16 47 38 22 27 21 50 70 67 60 52 35 34 58 56 54 50 55 46 59 73 80 79 84 90 99 99 97 97 87 37 18 20 19
15 12 19 75 99 94 63 84 75 34 87 78 64 24 23 16 16 22 18 13 14 18 28 43 46 26 28 31 29 28 27 29 31 32 34 38 50 64 74 80 68 71 80 83 81 72 40 32 53
13 11 17 50 72 80 73 64 70 49 62 82 52 42 24 16 22 21 14 12 13 12 10 10 10 10 11 16 14 14 17 19 20 21 32 40 32 27 27 35 54 82 92 78 82 88 94 90 86
18 18 26 32 26 38 52 56 57 53 73 80 85 79 37 24 38 41 42 27 11 11 11 11 11 10 10 12 21 24 28 27 36 54 56 62 71 81 93 98 95 88 100 94 89 95 93 91 92
16 18 24 34 32 27 36 42 44 50 98 66 56 88 77 35 36 28 33 40 43 41 21 11 10 11 12 11 15 27 41 60 67 68 67 83 88 89 80 78 84 86 86 91 97 98 98 99 84
16 13 19 30 36 44 36 22 30 79 64 48 40 32 37 37 29 23 27 31 40 39 46 47 32 23 23 22 27 30 34 48 73 77 77 80 72 64 55 59 79 94 98 98 99 99 98 100 95
24 17 14 21 33 45 61 39 51 63 66 45 42 38 34 33 29 38 39 42 34 29 40 39 50 44 36 23 24 24 32 70 87 76 88 63 54 68 48 52 44 76 86 98 98 99 93 71 31
47 20 19 28 25 42 72 69 68 69 76 64 53 50 40 38 28 31 36 37 33 40 48 43 42 35 25 20 18 31 23 50 35 74 61 66 46 20 51 41 41 49 82 77 55 54 46 31 17
65 50 40 30 21 24 71 99 89 81 77 79 76 41 65 30 30 30 30 43 39 43 52 63 56 48 41 29 34 36 34 43 49 30 23 62 79 70 51 63 67 64 64 45 46 48 32 17 12
64 34 30 41 27 20 33 79 98 89 59 51 69 80 69 49 34 26 24 22 20 18 29 62 81 100 92 76 91 89 87 86 92 93 59 78 93 96 96 94 84 83 75 55 54 41 20 12 13
57 41 42 41 24 20 24 44 88 80 87 76 75 76 63 55 37 24 30 30 24 16 18 21 36 49 91 96 97 92 93 98 97 99 96 96 95 74 87 92 96 88 63 58 42 24 14 13 14

GFSSGP_500_rhum_057.txt.gz
RH
26 25 28 20 7 4 5 10 12 21 40 29 59 67 59 52 70 82 94 81 91 93 88 73 72 71 80 97 95 88 85 94 87 93 79 57 42 45 52 53 51 48 52 60 66 65 59 56 44
29 33 18 9 5 4 8 11 21 37 60 68 57 56 64 62 65 71 77 84 93 84 69 85 88 90 81 96 96 98 97 84 96 98 78 60 62 66 70 64 56 48 48 62 66 77 68 62 55
35 28 9 5 4 8 16 28 36 38 49 48 37 46 63 65 69 62 66 75 68 73 83 77 87 76 83 96 96 96 100 87 98 90 76 72 78 70 70 68 65 65 53 53 59 70 69 71 66
40 18 6 5 6 12 26 33 34 34 38 56 64 60 51 54 72 76 80 82 65 73 86 90 86 79 79 87 83 91 96 97 94 86 81 84 84 83 73 67 50 44 43 41 44 42 53 74 76
42 12 5 7 11 12 24 28 25 35 50 74 85 70 68 50 48 55 82 92 82 66 61 69 60 53 60 66 68 85 96 71 97 75 84 95 89 87 83 80 75 50 50 51 50 56 60 71 78
30 9 5 9 10 19 20 23 24 47 65 81 70 66 61 24 36 41 46 64 50 45 34 50 86 77 69 83 80 97 94 94 97 69 95 96 96 92 82 85 76 47 47 51 58 70 75 81 90
23 9 6 10 24 27 14 16 22 35 50 68 67 67 79 51 19 19 23 19 22 32 56 60 69 93 76 93 90 95 92 96 95 97 87 91 100 94 84 71 54 43 53 52 74 85 86 80 85
21 9 6 17 21 18 15 9 19 30 41 50 58 52 53 61 61 38 30 65 75 82 95 91 86 94 81 97 96 94 96 95 90 78 79 86 91 93 74 52 53 58 63 58 86 95 94 81 79
24 10 8 14 14 15 10 12 18 33 45 51 56 46 55 57 66 69 72 92 92 96 94 96 96 93 93 97 95 96 97 95 96 96 81 82 93 95 64 57 77 94 91 89 97 100 95 84 79
26 11 10 9 13 9 14 12 29 44 49 64 66 43 50 53 52 47 76 74 96 92 94 96 96 97 96 89 70 79 89 94 97 90 93 92 92 86 68 72 95 96 91 95 92 98 97 95 87
31 13 9 10 9 8 12 19 56 68 72 80 63 44 45 49 53 45 83 80 88 95 95 96 97 96 96 91 83 97 90 96 96 97 95 90 65 70 80 83 93 92 95 90 90 99 99 94 48
32 14 10 12 9 11 23 35 55 71 64 65 48 38 40 41 46 33 91 85 76 78 86 96 96 95 96 96 97 96 95 94 94 97 97 93 84 93 97 96 97 85 100 90 90 99 91 87 67
41 17 8 10 12 26 44 47 68 61 72 67 62 34 33 37 35 40 44 66 67 72 76 85 94 96 96 96 96 94 87 90 96 96 87 89 81 97 94 98 95 87 90 96 100 99 96 50 42
51 18 9 8 17 46 53 44 52 59 57 69 47 30 33 39 33 45 25 55 41 52 59 51 77 85 96 89 94 83 63 65 77 92 86 80 85 91 97 100 96 99 98 96 98 93 45 34 46
63 17 9 8 32 55 45 62 48 59 73 39 25 34 35 44 36 42 29 34 39 56 94 48 45 61 52 77 79 64 69 63 65 89 92 91 86 97 99 97 96 100 100 100 94 64 40 49 72
64 15 10 19 40 52 68 55 46 66 36 31 26 37 40 42 54 47 45 38 40 44 49 56 44 75 50 62 76 95 84 65 80 84 91 95 94 81 99 96 97 98 100 93 75 78 68 69 73
23 16 16 26 25 32 65 69 38 72 48 29 36 35 45 50 47 58 60 64 45 46 50 47 82 59 46 56 82 81 62 68 72 93 97 100 96 98 98 99 93 98 98 93 79 73 64 52 53
26 17 18 42 43 49 61 61 40 56 65 53 31 28 37 44 42 25 31 60 49 60 57 40 52 54 50 67 68 68 77 83 82 96 86 98 98 92 99 100 94 98 100 100 77 48 35 47 49
39 18 17 46 48 38 48 39 54 44 60 53 24 22 18 40 40 33 35 31 66 56 64 68 61 58 62 63 78 84 92 100 86 99 97 98 94 95 100 86 98 99 94 76 39 29 29 32 23
41 20 15 38 67 48 38 63 49 40 65 65 36 24 16 28 37 26 15 33 54 81 88 85 80 72 67 75 87 99 98 97 95 98 97 98 98 92 85 93 97 95 92 84 67 34 21 19 18
50 21 18 21 36 38 32 46 43 34 78 59 31 20 22 16 41 36 15 15 25 55 61 56 51 36 60 80 90 79 69 65 60 63 67 81 80 80 84 92 93 84 100 100 96 93 91 69 30
54 26 16 20 12 16 31 23 46 36 60 65 40 25 21 18 11 11 14 12 12 15 24 29 21 32 31 32 27 28 34 30 28 34 50 55 64 74 87 88 79 78 77 84 87 80 91 82 74
46 34 23 16 13 14 20 22 31 34 64 65 76 47 27 27 32 23 16 11 12 11 10 11 12 14 18 17 21 25 26 26 30 34 35 32 33 34 39 54 51 53 54 77 96 100 95 84 77
59 50 34 17 12 9 26 22 20 27 54 77 56 53 41 28 32 30 38 39 37 17 10 10 11 12 19 36 39 24 18 26 32 42 58 78 82 79 87 92 98 96 98 100 90 95 97 98 97
70 48 34 19 14 11 42 17 21 23 44 61 38 35 29 33 34 25 21 32 39 42 48 43 20 12 14 16 16 26 33 46 67 77 70 76 78 89 73 57 62 84 100 96 100 100 98 99 98
90 88 36 17 12 17 30 19 30 29 34 57 42 35 34 33 31 36 34 34 33 30 30 34 39 44 38 33 19 17 19 25 41 59 78 74 77 66 62 80 83 61 82 86 89 97 97 96 97
89 86 73 30 19 14 23 18 33 41 37 46 56 42 42 50 38 35 33 29 37 49 43 40 37 35 34 26 23 22 20 31 39 52 70 76 78 71 47 67 77 58 60 84 74 73 68 72 50
95 100 92 53 28 17 12 16 31 58 57 49 60 54 54 60 45 37 32 31 48 48 55 64 67 63 46 38 35 26 21 18 17 28 44 78 66 84 85 75 76 85 75 88 82 67 56 43 43
88 82 88 61 43 30 19 14 57 60 65 64 51 39 40 62 41 36 29 29 24 38 32 68 86 90 90 99 97 96 74 76 82 79 75 80 50 61 96 97 97 96 97 96 96 88 50 49 42
100 95 100 85 53 43 29 13 42 56 64 68 70 53 61 50 48 43 27 29 32 28 24 21 44 72 95 89 93 97 97 93 97 98 98 98 98 97 99 96 94 96 92 95 98 85 73 52 33

GFSSGP_500_rhum_060.txt.gz
RH
20 27 26 27 24 18 7 4 4 6 11 16 22 31 58 63 56 36 56 85 98 95 95 83 98 96 81 77 75 64 59 51 89 77 69 72 72 63 58 63 61 59 57 61 61 62 65 64 59
25 31 30 30 20 9 4 4 6 14 16 23 34 45 51 56 67 66 68 66 95 94 90 92 93 81 62 59 53 56 59 64 81 90 81 70 74 68 61 62 66 58 57 59 55 60 57 62 62
32 36 36 28 14 5 5 4 10 18 29 32 42 44 37 53 62 63 84 79 73 91 92 92 80 64 76 72 84 63 82 80 81 95 94 67 68 68 81 66 67 66 61 59 63 51 46 57 66
37 41 36 22 10 5 5 6 11 23 27 27 41 44 43 41 54 52 60 71 71 87 99 97 97 88 75 75 65 63 95 97 91 94 95 78 70 75 79 78 71 61 60 51 56 43 44 43 46
42 46 38 19 7 6 6 9 23 28 31 37 39 45 56 69 48 40 55 61 57 74 80 72 52 62 66 66 56 68 90 91 79 87 97 76 73 81 76 81 91 79 73 74 55 50 46 56 60
48 47 38 17 6 5 5 10 21 26 21 28 30 29 31 37 58 56 31 37 51 72 64 68 51 54 50 55 60 80 91 73 81 89 90 71 67 79 83 91 87 84 73 73 69 61 58 70 72
49 50 37 15 6 5 8 13 13 27 36 44 51 54 59 69 74 58 40 30 29 41 56 59 35 46 60 63 70 86 94 96 95 96 89 71 61 73 89 88 89 95 84 75 70 60 66 69 76
51 54 36 13 5 6 8 13 13 25 35 40 63 73 69 52 55 59 76 79 50 47 63 37 49 94 93 72 63 86 94 97 96 93 93 77 61 70 77 88 84 83 78 70 65 62 68 83 82
54 55 36 13 5 6 8 16 12 12 25 34 48 62 58 48 50 53 54 64 89 77 94 95 93 94 92 88 91 95 97 95 97 95 96 97 92 70 64 81 80 71 83 95 97 95 94 90 96
55 55 42 14 5 6 12 13 13 16 46 58 56 49 44 39 41 46 55 92 92 96 97 96 98 98 96 96 97 96 96 96 95 96 95 94 93 71 64 88 75 65 78 93 94 94 95 100 97
56 59 46 16 6 9 20 15 24 34 65 59 46 44 40 38 36 43 46 73 96 97 99 98 97 97 96 96 96 95 88 97 93 98 96 95 95 80 82 93 77 74 72 98 97 97 95 100 97
61 60 52 20 7 8 20 24 33 39 66 54 56 57 38 34 37 37 44 68 92 97 97 96 96 97 95 96 96 94 90 93 98 95 97 95 95 90 90 69 87 80 71 100 95 93 96 98 99
61 65 58 32 8 7 32 33 29 37 54 61 65 40 34 39 38 36 44 53 69 86 93 96 95 96 97 97 93 93 96 96 96 97 96 96 97 97 85 83 95 97 95 100 90 94 96 99 98
72 70 72 43 8 8 41 40 38 41 55 63 34 30 39 65 57 38 44 40 42 74 72 96 97 95 93 94 95 94 97 95 95 97 97 97 95 90 90 97 98 99 93 86 82 98 96 92 90
82 80 82 48 10 12 24 35 50 44 53 34 27 33 42 58 80 49 36 28 47 69 74 63 79 96 98 97 96 86 83 78 78 96 97 98 100 99 92 92 98 100 99 92 89 95 96 100 91
94 92 81 28 13 12 17 34 46 45 43 30 32 32 39 47 54 72 55 31 39 38 50 90 95 94 88 71 88 93 92 94 93 81 96 97 96 95 95 97 97 99 95 92 92 95 98 87 74
98 89 53 24 14 13 20 50 49 42 46 47 31 33 40 49 36 30 44 61 46 37 45 71 42 44 55 55 77 90 90 95 98 92 90 95 95 97 100 99 93 96 97 94 95 94 77 67 77
95 74 38 27 18 18 26 36 52 38 46 53 42 30 34 36 38 31 28 42 54 48 46 41 42 42 88 48 42 59 92 96 91 98 98 99 97 99 100 99 96 98 98 98 94 83 87 95 96
76 75 51 25 22 18 34 57 61 41 30 53 47 22 23 34 40 34 32 32 64 58 68 70 59 74 58 44 58 62 80 81 78 100 98 100 97 96 97 94 96 97 99 94 90 98 97 94 82
73 75 59 25 23 14 28 34 40 36 35 50 55 29 24 18 39 33 16 36 62 87 85 71 62 54 64 64 69 58 72 97 81 93 87 97 96 97 92 97 96 98 95 99 100 96 84 77 51
79 72 54 26 24 14 14 16 38 35 37 57 47 23 23 16 30 48 18 13 38 65 70 72 78 75 66 79 75 65 72 79 79 82 92 99 98 96 98 97 100 97 99 100 96 92 68 48 28
86 83 57 30 20 16 16 10 28 33 47 57 37 26 26 17 15 11 21 12 17 41 47 37 37 34 54 71 98 92 91 94 94 96 97 96 88 90 78 85 93 98 96 98 100 93 99 97 92
93 91 75 42 26 18 13 11 22 28 40 54 49 37 26 26 19 28 18 13 12 10 15 28 25 23 28 31 32 39 38 35 36 49 56 56 59 80 82 80 70 78 81 93 86 78 78 82 92
97 89 74 58 39 26 19 11 16 23 49 43 50 50 41 39 27 30 34 28 11 10 10 10 10 11 18 18 24 30 32 33 35 37 37 42 51 57 52 56 58 62 57 66 64 78 95 97 100
72 91 84 63 53 42 28 16 19 16 38 38 41 37 21 26 31 31 26 31 39 40 33 24 14 11 11 14 22 29 27 24 34 31 46 47 52 50 50 68 86 88 89 91 89 100 98 99 99
82 97 100 81 63 53 29 18 24 20 20 34 49 30 24 23 32 34 33 40 30 34 39 43 46 33 22 22 21 18 18 29 40 61 70 58 66 67 68 77 67 61 63 72 89 100 99 82 88
92 90 100 90 83 78 52 19 13 21 28 39 40 41 41 36 32 32 34 36 34 36 38 35 40 42 40 32 28 26 22 21 24 31 42 62 67 65 66 66 65 72 86 70 67 88 100 97 78
99 100 97 88 77 75 57 32 18 27 31 40 52 46 44 47 47 43 34 32 34 44 46 49 58 60 56 48 44 38 32 27 25 21 28 30 62 67 66 80 88 76 66 85 76 68 83 96 83
100 94 89 84 81 71 61 46 22 27 24 45 50 54 44 50 48 48 31 28 29 33 39 42 52 71 82 84 90 90 77 95 66 41 31 68 58 64 97 95 96 97 96 98 96 99 95 96 98
98 95 100 100 90 87 69 44 38 36 36 52 62 49 45 49 39 48 33 29 26 28 26 28 50 51 64 81 88 94 99 96 98 92 97 96 100 100 97 92 96 97 98 96 98 98 98 100 99

GFSSGP_500_rhum_063.txt.gz
RH
16 21 20 22 26 26 25 10 5 4 4 9 13 18 25 38 55 66 63 32 18 38 69 83 94 89 63 93 93 93 88 77 68 93 96 95 66 58 54 54 58 58 59 54 55 56 61 60 50
20 24 24 25 30 31 17 6 5 4 8 14 19 27 43 43 43 52 67 62 45 56 90 99 92 90 74 91 93 89 77 67 65 76 96 93 52 53 55 60 55 54 60 58 59 56 63 56 57
25 31 31 32 35 30 11 5 4 5 10 16 24 34 34 34 38 50 56 55 72 60 65 83 73 60 59 84 92 88 61 53 50 51 80 95 59 58 56 63 66 60 67 55 58 66 66 62 57
30 34 37 41 37 26 7 5 5 5 9 12 20 29 31 28 27 33 47 60 55 73 69 82 84 93 93 66 86 90 62 63 63 78 83 92 79 68 57 57 58 64 67 68 72 70 72 51 66
29 35 45 44 40 22 6 5 6 11 14 14 23 24 26 30 33 34 46 67 72 74 74 58 82 85 92 80 75 54 55 58 77 93 97 97 82 73 66 51 56 66 66 63 62 61 60 56 59
33 40 49 46 42 16 6 7 12 18 17 18 37 47 53 52 54 68 55 52 60 76 77 69 61 82 64 51 76 67 71 68 77 96 84 98 92 76 65 47 63 83 89 78 77 58 67 65 60
39 46 50 52 39 12 5 8 17 14 21 32 37 52 60 70 62 60 69 61 68 94 91 72 67 71 64 49 57 75 92 93 75 93 99 96 92 72 53 52 67 88 87 91 84 72 68 64 76
43 48 53 54 39 10 6 11 17 17 16 27 27 36 40 57 50 52 57 61 71 92 92 80 61 62 74 45 53 66 90 79 90 96 94 96 95 85 56 56 70 93 92 80 61 65 78 85 78
44 50 56 52 42 10 8 9 14 13 15 30 41 42 37 32 38 39 43 49 61 70 88 75 75 83 70 62 96 96 88 90 94 96 98 96 96 89 64 60 80 79 93 67 69 96 96 95 97
44 50 58 51 46 14 7 8 9 18 30 52 60 40 33 39 34 35 36 53 94 96 97 93 91 89 90 94 97 95 90 92 96 95 97 95 99 85 85 67 84 83 91 68 67 96 98 99 99
45 56 61 56 49 28 6 8 16 38 43 56 52 43 45 32 32 42 42 47 80 95 97 97 97 96 96 98 94 96 97 96 98 97 92 89 97 96 86 80 85 91 88 75 69 88 93 99 97
48 61 62 63 61 40 7 8 21 42 34 34 52 47 43 31 36 44 39 39 89 95 97 98 96 98 97 96 97 97 95 95 92 92 85 95 98 96 96 94 84 96 88 96 91 98 95 95 97
53 72 63 68 73 61 8 8 29 48 45 44 50 48 30 34 46 44 40 38 80 92 95 95 96 97 97 96 96 96 94 90 92 95 85 98 98 97 96 87 93 85 87 99 94 97 90 95 100
57 64 68 72 76 67 11 12 41 40 43 46 47 29 33 42 51 52 48 36 60 82 93 96 96 94 96 94 91 89 82 78 89 98 90 98 98 96 86 98 93 80 97 97 100 92 90 92 98
73 70 68 83 76 54 10 17 37 43 44 42 33 32 32 45 42 59 54 33 42 78 92 96 97 96 95 94 92 94 96 90 97 98 97 97 96 96 96 99 93 89 98 98 95 89 95 92 98
88 80 77 77 60 32 9 26 42 44 39 43 33 33 33 42 45 33 40 54 38 38 82 94 82 97 96 96 98 98 95 95 95 97 94 98 98 97 97 97 94 98 97 92 97 96 94 94 99
92 93 73 62 52 28 12 30 29 50 42 44 42 34 30 29 40 36 30 29 48 37 52 55 66 85 95 97 95 92 99 98 96 96 96 98 97 97 93 94 93 97 92 97 100 95 96 95 100
96 82 63 64 53 33 16 18 23 50 52 40 45 41 24 23 28 37 33 34 45 50 34 38 83 70 77 74 57 81 94 97 95 92 90 97 97 96 91 98 98 95 90 92 94 96 96 96 96
78 70 64 77 68 40 18 18 24 37 59 50 40 43 34 23 21 36 27 26 46 56 52 51 53 87 50 81 50 52 76 94 97 98 95 98 95 96 93 96 98 93 94 94 99 94 97 95 96
68 60 71 85 76 43 22 19 30 45 66 52 40 35 47 23 20 33 34 15 42 70 60 67 65 56 57 81 50 45 74 86 93 95 82 89 96 97 97 96 97 95 96 98 96 96 93 84 90
64 70 90 91 73 51 25 17 24 35 65 49 47 50 28 21 19 17 28 14 28 56 70 79 73 64 52 71 80 70 80 98 90 85 91 96 97 97 96 96 96 96 96 98 96 100 98 99 87
48 82 97 83 74 60 36 16 18 20 41 42 57 30 22 20 16 14 11 14 12 34 46 38 36 42 60 67 70 99 95 98 87 88 97 98 98 94 96 95 96 95 96 96 100 99 97 88 80
71 100 86 76 65 57 44 22 25 15 32 49 56 45 22 20 18 22 28 12 13 10 16 32 36 24 28 35 86 96 96 92 92 96 97 98 97 97 98 97 96 97 91 98 92 84 81 79 84
81 93 73 69 67 60 50 30 32 18 31 39 48 47 39 24 20 26 31 34 13 10 10 9 8 10 17 20 26 29 35 40 43 53 51 61 70 73 71 71 79 88 89 92 86 74 65 67 70
70 78 69 62 66 66 61 44 25 31 24 31 41 44 46 40 20 24 30 25 34 34 23 15 11 9 8 9 11 15 16 19 21 25 27 29 36 58 57 64 75 68 60 68 59 50 59 70 87
83 84 83 78 78 91 78 48 22 28 23 35 34 50 40 27 23 28 28 26 24 32 36 35 35 31 20 16 16 16 19 26 28 39 31 36 43 41 40 35 34 37 50 60 67 69 80 90 98
94 76 87 89 82 81 69 57 42 21 29 29 38 47 46 29 26 27 28 32 29 34 31 28 31 30 29 32 35 34 25 19 22 24 41 50 53 56 64 68 71 84 78 70 62 66 90 84 94
88 100 96 86 68 69 69 62 65 30 25 27 41 48 52 39 34 34 34 36 29 29 31 39 40 46 45 45 40 38 32 28 24 22 24 34 55 70 66 71 76 82 77 63 56 70 78 72 76
100 88 83 78 67 67 71 63 78 57 22 35 46 60 53 50 46 46 48 48 37 31 30 37 42 50 65 66 67 67 70 73 88 98 94 35 30 34 44 60 67 76 82 95 93 95 100 100 100
96 98 100 98 92 88 79 63 68 85 35 25 48 51 72 67 67 52 41 54 37 31 31 30 26 26 43 58 71 78 84 83 92 96 99 100 98 88 71 79 88 96 97 99 98 98 99 98 100

GFSSGP_500_rhum_066.txt.gz
RH
10 12 13 19 26 27 30 29 20 6 4 4 8 10 11 15 19 22 18 18 14 18 12 10 13 39 50 50 71 92 96 97 98 67 80 93 92 96 96 68 45 44 47 48 49 50 54 60 58
12 13 16 23 31 32 37 28 9 4 4 5 9 11 15 21 24 23 22 27 29 38 39 30 41 43 57 57 45 95 93 97 84 70 76 96 97 92 95 58 46 38 46 50 51 56 66 73 61
13 16 22 28 29 40 39 24 5 5 5 6 9 12 18 22 22 18 20 28 40 50 66 59 52 53 55 58 63 70 92 92 79 64 64 89 97 96 86 54 36 44 50 50 49 62 66 74 73
15 21 28 29 33 39 39 13 5 5 7 8 8 12 23 24 19 23 27 26 40 51 49 60 72 61 91 71 48 70 95 92 79 59 53 89 96 96 83 57 44 57 60 56 61 61 66 73 71
17 25 34 32 41 41 36 7 5 7 9 8 8 14 35 41 45 49 46 45 47 48 69 83 80 90 95 96 94 46 71 81 73 64 50 64 88 96 93 65 63 58 53 58 66 72 70 61 56
20 28 37 41 43 45 32 6 7 9 10 8 9 19 40 50 48 56 57 63 79 63 79 93 94 78 92 95 94 91 74 65 61 57 58 94 84 95 93 72 70 54 63 66 64 63 62 61 59
23 27 38 46 49 50 35 6 8 8 11 9 9 18 34 48 48 56 45 54 58 75 64 92 97 69 78 83 98 91 67 79 65 70 87 93 99 95 93 85 87 64 70 77 70 72 72 62 58
25 26 38 46 48 51 39 8 7 7 9 9 10 14 27 45 50 39 37 39 50 64 88 97 94 74 63 87 76 83 97 89 75 82 87 92 96 96 93 94 81 82 73 73 74 74 49 55 64
26 30 44 48 48 52 46 13 6 8 7 12 14 34 53 54 43 44 32 33 37 40 51 69 90 94 72 76 74 50 54 86 95 86 91 95 97 96 89 94 90 83 73 71 76 52 51 71 91
30 37 48 46 52 55 51 25 6 8 9 17 27 54 50 46 50 36 35 40 42 46 92 95 87 74 72 85 64 53 77 94 96 95 92 96 97 97 96 91 93 64 71 74 76 52 76 89 100
35 45 50 52 55 54 58 37 6 8 20 26 38 46 44 52 41 35 43 36 38 53 97 94 94 95 90 72 69 87 94 97 97 97 97 96 97 96 90 89 85 64 66 85 74 61 65 92 96
40 49 53 60 54 55 66 52 8 10 16 24 32 43 47 42 30 44 39 36 38 75 91 98 96 97 97 96 96 94 94 97 96 95 96 95 96 95 91 87 86 78 72 82 81 69 70 74 89
44 55 57 62 62 55 65 60 10 14 16 34 38 43 42 27 35 45 47 44 41 80 96 99 90 87 79 92 97 98 97 96 97 98 98 97 96 96 95 92 86 77 82 97 88 77 94 78 86
47 55 59 61 67 59 73 56 10 16 27 38 40 44 29 31 37 40 58 45 41 72 96 99 91 86 90 89 96 96 97 97 97 97 93 96 96 97 94 91 91 83 93 90 84 90 97 92 85
52 62 66 72 72 66 70 25 14 15 29 44 37 35 29 32 34 40 31 48 38 46 88 96 95 96 96 96 96 95 96 97 96 97 95 96 97 96 96 98 90 92 98 95 82 94 89 89 95
58 70 81 90 74 67 53 16 16 24 26 42 37 39 40 32 25 32 33 31 36 39 60 96 96 96 96 95 96 96 95 97 96 95 97 97 96 96 98 96 94 95 98 92 98 97 90 96 94
64 77 85 87 70 61 47 18 10 14 30 45 39 38 42 24 20 20 38 35 37 42 33 68 96 96 94 95 98 96 96 99 87 95 96 96 97 96 97 96 96 97 100 99 97 94 85 90 95
81 89 76 86 70 60 59 29 15 13 34 50 36 43 46 35 22 19 34 28 38 48 44 34 62 46 97 97 97 98 99 98 98 99 98 98 98 99 98 97 97 96 96 96 94 90 82 91 96
88 81 68 77 81 69 66 42 18 19 30 49 53 52 41 40 25 18 35 21 31 54 46 36 40 84 90 97 97 96 97 97 95 96 95 96 98 96 95 96 97 97 95 96 92 87 93 94 94
89 73 63 75 86 78 68 45 24 22 26 42 71 58 45 45 27 17 17 26 17 62 56 46 50 65 69 44 61 55 68 95 94 97 96 96 96 97 97 98 97 96 98 100 95 93 90 94 88
95 82 81 82 81 86 64 47 25 24 18 37 55 43 50 47 18 17 11 20 13 43 68 70 60 61 74 45 67 67 48 57 98 86 94 92 85 90 93 95 98 97 90 87 95 94 93 90 87
91 98 82 74 75 88 59 42 26 32 21 21 34 35 44 26 19 14 12 10 19 17 44 40 59 64 61 60 63 66 53 54 88 89 94 88 96 92 95 95 95 97 98 96 96 93 87 94 97
94 100 89 81 66 66 74 56 26 22 17 16 37 25 47 25 18 15 18 15 9 14 11 19 29 28 30 53 68 67 69 70 75 88 81 86 96 96 97 97 96 97 96 98 94 94 90 87 92
99 100 93 81 76 50 66 64 41 19 16 18 30 33 44 44 45 23 21 29 21 10 9 9 8 8 15 22 39 76 93 96 97 93 79 88 94 97 96 96 97 96 96 92 90 92 97 84 94
95 97 86 86 68 51 64 75 48 26 19 21 30 31 43 41 50 42 23 27 28 30 30 24 14 9 7 7 12 24 34 43 50 49 34 34 71 95 95 95 89 93 88 90 84 93 95 87 91
99 92 85 81 78 78 71 70 47 36 24 21 21 31 43 51 32 21 23 26 26 24 24 24 25 28 25 12 11 11 17 20 20 26 24 28 25 31 38 47 58 62 67 68 61 84 77 74 83
92 76 97 92 83 86 70 56 74 42 25 24 24 36 39 51 29 26 22 25 26 28 30 30 30 32 26 26 28 27 23 15 17 26 30 39 41 45 47 46 44 42 41 41 46 55 62 67 72
83 99 93 88 98 89 92 57 88 89 37 22 30 42 39 51 44 32 30 30 32 41 31 28 30 31 36 39 34 29 28 25 22 20 20 21 27 32 41 51 58 60 64 64 69 75 72 67 60
89 91 97 89 89 88 100 82 84 97 72 25 32 35 41 49 50 40 36 39 44 44 38 30 30 37 39 33 51 54 53 51 35 65 53 82 75 44 22 42 40 45 64 65 67 70 77 77 72
99 98 99 99 97 92 96 100 70 97 89 35 39 43 50 60 53 51 52 57 51 43 39 28 29 29 27 26 30 34 54 69 82 88 83 86 88 83 75 64 54 34 54 65 71 88 93 86 100

GFSSGP_500_rhum_069.txt.gz
RH
9 12 12 14 19 22 38 67 31 33 21 10 3 4 6 8 9 18 20 12 14 20 14 21 16 9 8 17 18 23 32 51 90 58 77 87 94 79 78 83 78 68 47 45 44 48 47 55 52
10 12 12 15 23 50 57 63 41 33 13 4 4 5 6 8 10 13 11 15 18 21 22 26 25 25 19 14 30 33 43 68 98 98 88 90 95 83 75 70 82 87 73 46 44 50 49 56 58
11 12 14 17 25 37 59 57 42 30 6 4 5 4 5 8 13 19 17 16 24 27 29 50 48 34 37 38 16 26 24 57 96 95 92 88 85 88 88 86 96 84 55 47 49 46 48 61 68
11 13 15 20 34 76 36 48 43 15 4 4 5 6 7 6 14 29 37 36 37 30 35 35 59 38 52 65 71 28 25 31 85 95 78 76 80 94 92 87 89 61 47 48 73 54 52 60 61
12 14 17 22 33 50 38 49 40 10 5 5 5 6 35 5 14 41 45 49 55 49 55 48 52 60 63 95 98 97 74 48 79 94 86 64 61 97 95 89 73 63 55 65 61 51 55 59 70
12 16 19 30 65 73 38 48 40 11 5 6 7 6 8 8 15 25 33 37 53 38 47 64 70 93 81 80 84 92 96 56 73 82 91 71 60 86 97 84 75 66 70 79 62 62 61 67 58
14 18 21 28 44 70 47 47 41 18 6 41 18 7 10 7 11 17 37 52 48 37 42 56 68 72 76 93 100 96 92 68 50 62 58 57 53 68 94 85 82 70 72 71 68 57 65 63 64
16 21 23 28 39 50 60 46 42 30 8 6 7 8 14 9 16 46 48 42 45 33 35 48 63 87 86 69 95 94 98 90 62 55 53 51 59 80 99 91 84 78 82 79 65 67 68 69 59
19 24 25 31 66 48 56 50 47 39 8 7 7 8 12 36 48 46 47 51 32 40 47 38 58 76 78 51 62 99 96 96 85 66 73 58 80 88 98 99 85 86 90 79 74 72 74 64 47
22 26 27 43 53 47 56 55 54 49 11 12 14 15 33 50 49 46 47 31 36 42 37 64 96 78 81 76 65 90 97 97 97 90 70 79 90 97 97 95 90 88 91 86 83 77 67 52 52
25 26 31 43 50 49 55 58 59 60 16 8 11 28 32 38 50 37 29 38 42 34 34 92 97 98 81 72 98 67 74 84 90 94 96 88 96 95 96 97 92 93 87 84 90 81 64 58 78
29 28 34 43 53 49 55 57 60 63 20 6 14 26 26 37 44 30 32 44 39 36 42 92 97 96 97 72 69 85 64 81 98 96 96 96 96 96 95 98 96 94 92 98 97 81 73 59 61
34 30 38 47 56 51 53 55 57 68 16 7 24 30 30 41 31 30 31 44 38 43 62 91 94 86 86 87 74 77 82 77 96 95 97 97 96 97 96 98 95 92 89 99 91 86 78 68 67
33 33 41 48 57 52 53 54 65 55 11 13 18 35 38 34 29 32 29 34 42 32 45 93 95 98 87 74 72 86 86 98 96 97 96 97 96 96 97 97 96 87 85 97 92 87 89 82 82
37 35 45 52 62 60 60 64 62 29 10 11 22 40 35 31 34 32 21 33 33 34 38 82 93 86 86 85 79 96 98 95 97 96 97 96 96 94 97 96 94 87 93 79 93 86 99 91 92
39 40 47 62 73 77 62 74 52 20 10 11 29 39 36 31 30 23 18 35 34 33 36 40 94 92 97 88 94 89 96 96 96 96 97 99 96 97 94 97 96 95 94 84 88 95 97 98 96
43 42 54 74 82 85 67 84 56 30 12 16 27 28 34 24 34 30 18 30 28 34 36 28 49 92 90 85 88 94 97 96 97 97 96 98 97 98 92 90 96 95 96 95 88 100 97 93 85
54 51 70 80 100 69 74 81 59 43 15 15 28 22 29 30 33 36 19 24 21 38 39 32 32 88 78 90 95 96 96 96 96 92 91 94 96 96 97 97 99 95 93 95 97 99 95 85 86
62 93 100 100 100 64 67 80 88 67 53 14 19 18 26 28 28 36 18 18 18 42 46 41 33 43 46 94 87 90 96 95 95 95 98 97 97 97 97 94 96 95 98 96 96 95 94 96 94
83 80 84 99 100 67 69 71 83 45 71 37 16 17 24 21 34 34 16 12 16 37 52 50 35 43 80 84 94 98 97 98 94 98 98 98 93 90 89 91 94 97 96 97 95 94 94 96 96
91 89 90 100 100 61 61 70 86 48 31 36 15 13 21 25 33 20 13 11 16 30 49 59 63 51 65 58 42 45 60 67 85 96 95 94 96 96 97 94 98 98 95 92 96 94 98 99 96
93 98 100 97 93 60 77 74 93 84 97 59 13 11 20 29 20 19 13 12 9 18 41 42 57 68 67 66 70 56 55 50 47 54 91 96 92 92 95 96 95 94 94 95 95 91 96 99 97
90 96 100 99 89 75 57 60 86 80 90 78 18 9 18 38 19 28 17 17 12 9 12 20 35 25 29 35 62 50 61 83 61 46 72 81 66 84 86 90 94 96 97 96 96 97 98 98 96
98 99 99 95 94 70 59 68 87 98 99 45 21 12 21 45 39 42 26 19 18 12 7 8 8 16 13 18 33 60 53 68 72 63 64 83 86 85 85 94 94 95 94 96 98 96 98 98 98
91 100 100 96 92 58 88 71 68 100 67 31 13 13 20 45 52 45 29 21 21 22 25 23 15 9 6 6 10 36 77 77 84 80 90 77 77 87 81 91 92 95 98 96 97 98 97 95 93
98 100 91 87 97 74 98 71 84 96 78 32 16 14 18 35 52 45 25 23 20 22 23 22 22 22 23 18 9 7 15 29 41 48 52 50 35 42 70 90 94 97 97 97 97 94 82 86 90
94 85 98 97 98 91 100 78 76 93 61 40 24 15 20 28 39 45 25 26 18 18 21 21 26 28 30 28 22 20 13 10 12 15 18 19 20 27 33 36 44 65 74 74 80 78 86 92 86
92 100 95 97 100 99 99 100 100 80 91 61 28 24 18 29 38 44 33 30 24 24 36 35 26 21 26 30 31 32 25 24 21 16 16 18 23 33 40 39 45 47 48 47 44 44 50 54 71
97 93 94 100 100 100 100 99 99 85 97 92 53 22 23 30 39 41 44 35 30 35 38 36 27 21 23 30 32 39 43 45 42 31 24 24 22 34 31 23 22 38 49 44 42 50 58 66 72
98 98 94 98 99 89 100 99 83 88 96 84 68 30 32 36 40 38 45 43 39 36 46 44 35 23 22 21 23 23 32 35 56 60 57 62 58 63 63 61 58 28 26 35 25 43 52 53 57

GFSSGP_500_rhum_075.txt.gz
RH
14 12 11 12 10 10 15 18 22 40 46 39 28 48 40 28 6 3 7 5 7 10 12 9 11 14 21 22 18 10 5 7 16 91 10 12 13 14 17 31 28 64 95 82 68 56 51 47 48
17 15 13 14 11 10 18 19 37 68 42 33 39 45 38 15 3 3 5 9 4 7 20 17 15 23 24 26 25 20 11 19 45 15 16 14 22 17 19 39 59 87 98 77 64 56 51 49 48
18 17 15 14 11 12 17 20 62 51 24 39 44 40 32 7 3 4 4 6 5 5 31 34 31 29 32 34 33 74 63 23 10 17 16 30 59 25 29 62 88 99 96 71 63 61 55 54 52
19 19 17 15 12 13 18 35 36 33 36 47 37 37 26 7 4 5 7 6 6 7 23 35 26 27 26 29 38 37 77 80 93 28 21 20 33 49 60 63 100 98 94 77 72 60 61 54 51
18 21 19 18 12 13 23 70 65 60 48 46 45 38 25 15 5 4 6 5 6 7 12 17 29 26 31 36 62 55 60 94 84 73 31 24 25 98 84 72 100 97 92 91 74 68 74 58 55
22 22 18 18 14 14 17 31 68 77 53 43 52 39 20 9 5 5 6 9 8 9 13 29 28 34 34 41 69 94 93 97 95 95 96 74 45 76 88 97 98 94 94 89 91 87 66 60 70
29 26 21 19 14 15 17 46 68 66 44 42 44 41 27 14 9 5 7 11 41 35 27 28 21 20 28 52 60 83 94 96 96 93 96 96 74 91 94 100 98 97 96 94 90 95 76 68 65
31 26 22 20 15 16 39 56 63 62 58 51 50 50 35 23 13 6 10 35 37 34 25 19 21 26 38 60 65 97 95 96 96 96 96 95 90 69 90 93 94 99 96 98 96 90 66 78 73
36 19 15 22 16 16 35 53 85 85 64 44 46 45 35 38 13 14 24 34 33 26 23 19 24 37 51 79 77 69 88 87 94 95 95 96 91 47 55 92 95 97 98 93 94 78 69 73 69
22 13 16 21 15 15 24 64 84 77 48 41 47 37 22 28 16 11 27 29 34 30 29 30 34 40 77 96 100 82 90 87 84 90 96 97 90 65 75 86 94 87 93 97 90 78 72 76 68
33 12 25 22 15 16 24 42 71 82 66 42 52 51 35 46 22 9 24 26 27 22 20 29 32 54 94 91 93 81 87 86 96 74 96 96 93 61 60 59 87 77 75 97 98 80 80 85 68
28 36 36 23 16 18 21 27 30 52 51 52 61 66 38 52 8 12 27 32 27 23 21 25 32 45 87 96 96 92 96 97 97 98 97 90 71 56 57 51 70 85 95 96 91 89 84 85 74
38 48 38 21 17 21 25 25 26 40 48 59 66 65 61 19 8 14 34 27 22 19 21 27 33 44 80 88 97 93 93 100 97 96 96 74 76 68 68 69 79 86 83 94 91 95 85 91 77
49 59 46 22 18 21 26 26 29 34 52 62 65 67 38 8 8 22 32 31 21 17 19 26 32 32 86 88 94 96 95 97 92 96 95 91 97 86 59 72 84 84 71 80 95 95 94 86 76
33 80 58 27 21 22 25 27 30 41 57 63 65 64 18 8 13 26 27 25 22 16 17 23 30 33 59 95 86 93 93 94 94 95 97 96 100 92 75 91 96 94 93 95 98 96 90 90 69
36 60 72 36 25 24 28 27 34 55 68 66 68 36 22 9 10 19 25 25 25 16 14 17 25 31 44 90 97 87 82 85 79 96 93 96 100 86 77 87 94 90 94 96 95 99 97 89 77
37 32 77 54 32 35 36 33 42 73 75 73 58 47 33 10 10 10 20 31 25 14 12 14 26 33 41 88 93 84 76 70 68 63 77 94 85 90 95 92 93 96 90 97 92 97 97 94 84
39 73 72 81 39 35 58 52 55 89 90 73 72 63 37 10 12 11 22 30 22 12 13 14 27 35 32 66 65 82 87 77 74 75 72 76 82 86 83 94 94 92 91 96 91 96 96 94 89
62 97 94 82 52 79 93 95 78 89 100 74 66 60 40 18 9 13 23 33 14 12 15 20 31 34 30 67 38 74 95 86 86 84 77 75 85 84 92 97 88 96 98 81 83 96 97 98 97
55 82 76 60 52 96 84 94 100 89 83 84 66 61 44 19 10 14 23 21 12 12 20 22 39 37 34 32 53 91 95 85 79 90 96 92 96 89 94 96 93 95 98 92 90 98 89 88 100
54 93 83 64 74 97 100 98 93 66 81 90 80 71 54 25 10 14 28 15 13 10 15 26 39 45 40 36 56 84 80 89 92 96 96 97 96 100 96 97 96 95 97 93 89 88 87 78 98
59 86 91 96 94 93 89 79 84 92 92 93 87 69 52 44 9 18 22 16 16 11 10 13 37 47 48 47 66 56 37 95 81 91 96 100 100 98 97 90 91 91 91 97 97 96 84 81 96
73 100 95 86 72 84 70 66 56 67 59 74 91 84 74 31 10 26 18 18 17 14 9 8 10 37 42 48 44 43 42 35 42 62 70 89 94 90 85 85 93 97 97 95 88 84 84 90 92
89 98 95 71 78 79 74 64 47 52 70 83 72 100 91 22 13 22 20 22 19 16 14 9 7 8 18 20 29 33 37 41 39 43 48 51 46 55 88 73 81 98 97 86 94 87 83 94 92
100 90 99 94 95 67 69 76 42 72 75 68 84 95 72 47 23 20 19 22 23 18 16 16 13 9 8 7 6 9 15 30 37 39 49 59 46 42 54 83 75 74 84 91 98 99 93 88 88
94 94 94 95 99 88 84 62 49 79 76 89 95 94 75 65 20 18 22 22 25 21 18 21 21 21 20 18 16 13 6 15 44 52 49 54 54 57 57 64 57 43 44 67 86 96 99 97 98
87 90 94 99 95 83 77 72 98 93 91 55 76 83 82 66 18 23 21 30 26 24 18 20 22 22 21 23 22 20 20 13 18 36 36 32 46 49 36 27 32 34 50 90 98 97 92 92 96
99 100 97 98 97 86 76 86 81 81 85 72 89 86 77 54 38 16 22 25 30 26 18 21 26 26 22 18 23 24 24 24 21 16 13 24 28 27 29 24 21 29 35 36 42 68 85 91 95
100 98 96 99 94 91 98 89 78 94 99 98 96 90 62 71 45 17 20 21 34 30 26 22 24 28 25 22 18 18 20 29 32 34 28 20 16 15 15 17 22 26 28 24 30 40 36 37 54
100 98 97 99 97 96 100 95 88 100 97 100 91 86 64 66 69 30 20 22 24 33 34 30 27 28 27 23 24 22 21 23 28 34 40 47 52 46 40 45 35 43 61 60 58 34 46 53 50

GFSSGP_500_rhum_078.txt.gz
RH
13 14 12 14 14 12 12 12 13 15 18 19 17 26 28 43 53 38 14 4 4 5 7 8 8 11 9 10 18 23 23 16 7 5 8 23 80 13 16 45 24 42 29 63 84 75 66 60 55
12 11 11 13 15 15 12 14 14 15 17 16 20 33 38 41 39 34 6 4 5 6 6 6 9 17 19 21 24 24 25 26 15 14 23 39 64 20 14 16 15 59 39 61 90 81 66 58 55
12 13 12 11 16 16 12 13 14 16 18 18 21 36 31 32 36 28 5 4 6 6 8 8 14 24 26 27 27 27 30 31 31 17 45 41 95 59 14 13 14 26 37 65 94 93 68 59 55
13 12 12 10 16 17 13 14 15 16 21 19 20 38 32 32 33 26 7 3 4 5 5 5 8 24 25 21 26 26 30 34 72 94 90 88 66 19 15 44 26 47 71 99 100 87 66 60 59
10 10 9 6 20 18 15 13 16 17 18 21 17 32 30 34 36 28 10 4 5 5 6 7 8 13 16 24 24 29 34 47 42 34 71 74 68 35 15 59 36 55 78 99 98 89 66 63 58
4 7 3 6 19 20 17 15 16 17 18 28 17 24 30 38 39 26 18 5 6 6 8 19 21 25 28 24 22 47 72 76 85 84 96 91 85 48 13 62 63 61 94 95 93 79 68 65 65
4 4 3 4 10 23 14 14 16 17 20 51 37 28 32 40 29 31 24 6 8 14 24 28 29 25 20 21 31 35 68 95 97 97 96 96 96 96 41 87 97 76 94 93 90 89 70 73 71
3 2 2 2 12 18 17 16 16 19 31 40 35 24 34 40 35 43 34 8 10 30 28 26 22 16 20 32 38 52 82 86 97 96 96 96 96 97 94 80 91 79 94 93 90 87 82 84 80
2 2 3 5 18 21 29 20 21 23 42 45 34 24 36 43 48 51 38 9 26 26 22 25 21 16 28 38 61 73 98 94 96 95 96 97 93 96 95 81 99 98 95 94 89 86 82 95 90
3 4 4 14 21 22 18 17 18 22 31 31 24 24 36 45 48 46 35 8 16 27 29 26 21 20 33 60 83 92 98 97 95 95 94 95 96 97 97 83 93 91 97 96 96 88 82 95 83
3 4 6 10 24 27 19 19 20 19 24 32 32 28 37 43 44 54 23 8 14 28 29 25 20 24 34 40 93 95 100 94 75 92 95 96 96 96 95 74 60 74 96 93 96 92 97 90 84
2 2 3 8 27 31 23 22 19 18 35 36 34 36 44 47 51 60 17 10 21 25 24 18 17 24 33 52 92 95 88 80 83 95 96 93 95 95 84 65 88 91 95 94 73 82 96 86 91
2 5 5 4 10 34 31 19 20 22 33 34 50 46 52 55 57 56 12 9 22 24 23 17 18 23 33 40 94 96 93 90 89 85 91 92 94 96 78 56 81 71 89 71 76 90 95 90 90
4 4 4 6 7 22 46 21 18 18 26 43 51 61 56 60 62 22 8 17 25 25 22 17 17 19 30 69 91 97 96 91 87 93 91 91 95 96 77 52 53 54 64 81 94 98 82 93 85
4 4 5 6 12 16 61 38 18 19 24 31 49 62 64 60 58 14 8 22 24 28 25 16 16 18 33 38 95 96 96 92 95 97 95 95 93 80 63 54 61 77 91 86 86 90 91 80 79
5 5 5 10 22 40 68 48 24 19 25 34 50 70 65 66 48 16 10 24 21 25 26 15 15 22 39 43 94 95 97 96 96 96 96 96 86 72 67 66 72 82 95 98 85 86 88 95 94
5 5 8 14 32 68 77 56 30 35 34 42 57 71 78 75 33 16 12 23 20 30 25 15 17 29 37 44 89 89 96 97 95 95 96 97 95 96 94 85 96 99 95 96 100 99 99 95 96
6 6 7 13 29 100 97 60 45 41 50 57 61 76 88 63 28 29 19 20 25 29 16 14 24 36 34 60 67 81 88 97 96 96 97 95 97 99 98 90 95 92 96 100 97 92 89 98 78
6 6 6 12 38 89 80 46 46 44 51 52 74 84 73 67 40 30 17 24 22 21 12 21 38 41 40 80 46 66 88 92 91 96 91 95 96 98 98 96 92 98 97 100 97 96 87 85 77
8 7 6 13 54 86 84 63 50 47 56 63 73 76 78 73 29 35 36 26 26 12 12 21 36 48 37 52 34 63 99 99 98 92 87 89 96 96 96 97 96 98 100 96 94 94 95 82 89
9 7 7 29 79 84 70 56 53 55 56 60 82 91 83 72 32 32 41 34 18 12 11 13 25 51 46 34 58 84 83 89 95 94 94 95 96 94 91 98 97 88 89 85 77 74 83 91 95
8 19 36 48 96 79 82 38 60 74 54 62 86 89 78 76 42 34 46 28 15 14 11 10 12 40 53 48 76 57 42 91 97 97 97 97 96 97 99 98 97 94 83 82 84 79 81 83 91
7 33 42 70 87 69 84 44 56 84 60 52 55 84 73 69 36 31 59 24 17 16 12 8 8 16 37 47 50 52 48 52 89 92 96 97 97 97 96 97 94 91 88 89 88 78 78 77 95
7 39 64 78 63 56 56 56 42 67 53 53 53 60 64 56 32 53 54 26 20 19 15 13 8 8 15 19 27 33 40 43 36 56 84 94 94 94 89 89 91 94 91 90 88 94 92 93 96
7 56 75 65 85 40 72 93 36 69 69 65 61 70 69 37 39 36 41 32 26 22 18 17 16 11 8 7 7 10 17 34 48 43 44 53 63 58 67 94 80 74 85 92 93 96 96 95 97
16 77 83 89 81 53 68 74 47 83 91 79 53 63 66 61 71 59 82 40 29 27 22 20 18 21 19 17 16 10 6 13 55 59 58 74 76 55 48 69 81 87 78 80 79 80 84 84 94
33 73 90 88 92 70 66 81 75 94 93 81 53 62 65 73 80 77 41 37 34 32 24 20 22 19 22 21 20 20 18 13 21 62 70 68 72 71 71 63 62 55 35 36 45 58 84 93 94
96 100 98 97 98 76 78 70 72 94 93 73 53 61 66 82 94 90 39 33 38 32 25 20 22 22 21 18 20 23 23 23 18 16 30 32 31 31 36 38 32 32 33 34 35 66 96 92 92
98 98 98 100 100 94 100 81 95 97 98 85 94 74 73 71 74 54 30 31 33 33 28 23 20 26 27 23 16 16 17 18 26 28 20 16 16 17 17 19 20 26 33 35 34 32 43 48 66
100 97 98 100 100 83 100 90 89 92 94 77 97 94 68 65 70 79 31 25 27 37 33 28 27 26 28 30 26 24 20 19 22 31 38 42 44 45 45 33 30 29 26 30 47 54 55 38 39